GIA1201 OEMA-WAAA

Flight info

Callsign GIA1201
Flight time 10h 59m
Altitude 35000
Route MEDRO M872 BDB Y214 RAPMA DCT ULONO DCT DAPOL L692 GISKA N569 LOTAV M300 RULKA L896 SULEN P570 NIXUL DCT BINAK DCT JATAM DCT GUKNO DCT TANUR DCT GURNI
Aircraft B77W/H-SDE1E2E3FGHIJ4J5M1RWXYZ/LB1D1

Departure

Time 2026-04-22 11:58
Airport Prince Mohammad Bin Abdulaziz Airport (OEMA)

Arrival

Time 2026-04-22 22:57
Airport Sultan Hasanuddin International Airport (WAAA)
Time Latitude Longitude Altitude Speed Heading
2026-04-22 11:07 24.54882 39.71391 2175 ft 0 kts 79°
2026-04-22 11:43 24.54879 39.71374 2175 ft 1 kts 79°
2026-04-22 11:43 24.54877 39.71364 2175 ft 2 kts 76°
2026-04-22 11:43 24.54872 39.71348 2175 ft 2 kts 58°
2026-04-22 11:44 24.54863 39.71335 2175 ft 2 kts 44°
2026-04-22 11:44 24.54851 39.71325 2175 ft 2 kts 31°
2026-04-22 11:44 24.54838 39.71318 2175 ft 2 kts 17°
2026-04-22 11:44 24.54823 39.71314 2175 ft 2 kts
2026-04-22 11:45 24.54808 39.71315 2175 ft 1 kts 351°
2026-04-22 11:45 24.54804 39.71315 2175 ft 0 kts 348°
2026-04-22 11:48 24.54805 39.71315 2175 ft 0 kts 348°
2026-04-22 11:48 24.54822 39.71311 2175 ft 4 kts 348°
2026-04-22 11:48 24.54870 39.71301 2175 ft 8 kts 350°
2026-04-22 11:49 24.54939 39.71287 2175 ft 9 kts 349°
2026-04-22 11:49 24.55002 39.71275 2175 ft 8 kts 349°
2026-04-22 11:49 24.55064 39.71261 2176 ft 10 kts 349°
2026-04-22 11:49 24.55140 39.71245 2176 ft 11 kts 349°
2026-04-22 11:50 24.55214 39.71230 2176 ft 9 kts 349°
2026-04-22 11:50 24.55244 39.71184 2176 ft 7 kts 268°
2026-04-22 11:50 24.55236 39.71129 2176 ft 7 kts 260°
2026-04-22 11:50 24.55227 39.71071 2176 ft 7 kts 260°
2026-04-22 11:51 24.55239 39.71034 2176 ft 5 kts 327°
2026-04-22 11:51 24.55291 39.71017 2176 ft 10 kts 348°
2026-04-22 11:51 24.55385 39.70996 2176 ft 16 kts 349°
2026-04-22 11:51 24.55488 39.70974 2177 ft 14 kts 349°
2026-04-22 11:52 24.55584 39.70954 2177 ft 14 kts 349°
2026-04-22 11:52 24.55693 39.70932 2177 ft 16 kts 349°
2026-04-22 11:52 24.55801 39.70908 2178 ft 16 kts 349°
2026-04-22 11:52 24.55915 39.70884 2178 ft 17 kts 349°
2026-04-22 11:53 24.56037 39.70858 2178 ft 17 kts 348°
2026-04-22 11:53 24.56162 39.70831 2178 ft 19 kts 349°
2026-04-22 11:53 24.56296 39.70802 2179 ft 20 kts 349°
2026-04-22 11:53 24.56438 39.70773 2179 ft 21 kts 349°
2026-04-22 11:54 24.56586 39.70741 2180 ft 21 kts 349°
2026-04-22 11:54 24.56739 39.70709 2180 ft 22 kts 349°
2026-04-22 11:54 24.56892 39.70677 2180 ft 20 kts 349°
2026-04-22 11:54 24.57026 39.70649 2181 ft 18 kts 349°
2026-04-22 11:55 24.57150 39.70623 2181 ft 19 kts 349°
2026-04-22 11:55 24.57297 39.70593 2182 ft 23 kts 349°
2026-04-22 11:55 24.57453 39.70557 2182 ft 21 kts 349°
2026-04-22 11:55 24.57588 39.70529 2182 ft 16 kts 349°
2026-04-22 11:56 24.57652 39.70461 2183 ft 13 kts 263°
2026-04-22 11:56 24.57636 39.70367 2183 ft 9 kts 259°
2026-04-22 11:56 24.57614 39.70327 2183 ft 4 kts 188°
2026-04-22 11:56 24.57569 39.70338 2182 ft 12 kts 167°
2026-04-22 11:57 24.57325 39.70394 2182 ft 65 kts 169°
2026-04-22 11:57 24.56680 39.70533 2180 ft 120 kts 169°
2026-04-22 11:57 24.55685 39.70743 2178 ft 167 kts 167°
2026-04-22 11:57 24.54436 39.71006 2329 ft 193 kts 168°
2026-04-22 11:58 24.53111 39.71298 2804 ft 196 kts 167°
2026-04-22 11:58 24.51726 39.71617 3377 ft 206 kts 168°
2026-04-22 11:58 24.50324 39.71928 3945 ft 208 kts 169°
2026-04-22 11:58 24.48874 39.72242 4306 ft 213 kts 170°
2026-04-22 11:59 24.47409 39.72560 4734 ft 214 kts 170°
2026-04-22 11:59 24.46275 39.72805 5085 ft 214 kts 170°
2026-04-22 11:59 24.44798 39.73124 5378 ft 225 kts 171°
2026-04-22 11:59 24.43171 39.73474 5491 ft 247 kts 170°
2026-04-22 12:00 24.41483 39.74162 5603 ft 272 kts 148°
2026-04-22 12:00 24.40160 39.75711 6018 ft 284 kts 119°
2026-04-22 12:00 24.39626 39.77795 6637 ft 288 kts 93°
2026-04-22 12:00 24.39726 39.80012 7190 ft 292 kts 87°
2026-04-22 12:01 24.39894 39.82229 7677 ft 297 kts 87°
2026-04-22 12:01 24.40067 39.84475 8259 ft 298 kts 87°
2026-04-22 12:01 24.40243 39.86747 8841 ft 300 kts 87°
2026-04-22 12:01 24.40421 39.89042 9401 ft 302 kts 87°
2026-04-22 12:02 24.40598 39.91346 9925 ft 306 kts 87°
2026-04-22 12:02 24.40779 39.93704 10262 ft 318 kts 88°
2026-04-22 12:02 24.40967 39.96180 10396 ft 338 kts 87°
2026-04-22 12:02 24.41168 39.98836 10595 ft 355 kts 87°
2026-04-22 12:03 24.41377 40.01582 10817 ft 372 kts 87°
2026-04-22 12:03 24.41597 40.04481 11182 ft 384 kts 87°
2026-04-22 12:03 24.41820 40.07402 11817 ft 388 kts 87°
2026-04-22 12:03 24.42043 40.10345 12531 ft 391 kts 87°
2026-04-22 12:04 24.42270 40.13338 13202 ft 397 kts 88°
2026-04-22 12:04 24.42501 40.16400 13852 ft 404 kts 88°
2026-04-22 12:04 24.42732 40.19465 14579 ft 409 kts 88°
2026-04-22 12:04 24.42968 40.22609 15305 ft 416 kts 88°
2026-04-22 12:05 24.43206 40.25784 16055 ft 422 kts 88°
2026-04-22 12:05 24.43446 40.29000 16795 ft 427 kts 88°
2026-04-22 12:05 24.43691 40.32288 17443 ft 435 kts 87°
2026-04-22 12:05 24.43939 40.35617 18120 ft 442 kts 87°
2026-04-22 12:06 24.44191 40.39021 18794 ft 448 kts 87°
2026-04-22 12:06 24.44443 40.42426 19502 ft 454 kts 87°
2026-04-22 12:06 24.44700 40.45902 20129 ft 461 kts 87°
2026-04-22 12:06 24.44961 40.49450 20817 ft 467 kts 86°
2026-04-22 12:07 24.45223 40.53011 21476 ft 472 kts 86°
2026-04-22 12:07 24.45487 40.56608 22099 ft 478 kts 86°
2026-04-22 12:07 24.45722 40.60250 22704 ft 483 kts 90°
2026-04-22 12:07 24.45564 40.63984 23273 ft 487 kts 97°
2026-04-22 12:08 24.45205 40.67665 23847 ft 493 kts 98°
2026-04-22 12:08 24.44818 40.71443 24329 ft 500 kts 98°
2026-04-22 12:08 24.44423 40.75284 24826 ft 506 kts 98°
2026-04-22 12:08 24.44029 40.79119 25361 ft 511 kts 98°
2026-04-22 12:09 24.43628 40.83012 25879 ft 516 kts 98°
2026-04-22 12:09 24.43235 40.86819 26356 ft 522 kts 98°
2026-04-22 12:09 24.42822 40.90817 26832 ft 527 kts 98°
2026-04-22 12:09 24.42408 40.94812 27351 ft 531 kts 98°
2026-04-22 12:10 24.41985 40.98889 27865 ft 536 kts 98°
2026-04-22 12:10 24.41561 41.02961 28341 ft 540 kts 98°
2026-04-22 12:10 24.41129 41.07103 28807 ft 545 kts 98°
2026-04-22 12:10 24.40697 41.11232 29287 ft 550 kts 98°
2026-04-22 12:11 24.40255 41.15459 29703 ft 555 kts 98°
2026-04-22 12:11 24.39803 41.19764 30157 ft 560 kts 98°
2026-04-22 12:11 24.39355 41.24015 30555 ft 566 kts 97°
2026-04-22 12:11 24.38898 41.28347 30998 ft 569 kts 97°
2026-04-22 12:12 24.38437 41.32704 31445 ft 573 kts 97°
2026-04-22 12:12 24.37975 41.37057 31832 ft 577 kts 97°
2026-04-22 12:12 24.37510 41.41428 32296 ft 579 kts 97°
2026-04-22 12:12 24.37040 41.45837 32830 ft 579 kts 97°
2026-04-22 12:13 24.36570 41.50224 33404 ft 578 kts 97°
2026-04-22 12:13 24.36104 41.54574 33933 ft 577 kts 97°
2026-04-22 12:13 24.35637 41.58917 34440 ft 576 kts 97°
2026-04-22 12:13 24.35168 41.63261 34913 ft 576 kts 97°
2026-04-22 12:14 24.34224 41.71976 34962 ft 568 kts 98°
2026-04-22 12:14 24.33278 41.80559 34964 ft 563 kts 101°
2026-04-22 12:15 24.31433 41.88771 34972 ft 565 kts 108°
2026-04-22 12:15 24.29261 41.97035 34973 ft 561 kts 109°
2026-04-22 12:16 24.27096 42.05246 34976 ft 561 kts 108°
2026-04-22 12:16 24.24926 42.13458 34980 ft 563 kts 109°
2026-04-22 12:17 24.22760 42.21642 34982 ft 562 kts 108°
2026-04-22 12:17 24.20568 42.29905 34988 ft 562 kts 108°
2026-04-22 12:18 24.18386 42.38113 34992 ft 564 kts 108°
2026-04-22 12:18 24.16192 42.46345 34996 ft 563 kts 109°
2026-04-22 12:19 24.13986 42.54604 34993 ft 562 kts 108°
2026-04-22 12:19 24.11795 42.62787 34993 ft 565 kts 109°
2026-04-22 12:20 24.09578 42.71047 34973 ft 563 kts 109°
2026-04-22 12:20 24.07365 42.79277 34975 ft 564 kts 109°
2026-04-22 12:21 24.05186 42.87359 34974 ft 563 kts 109°
2026-04-22 12:21 24.02964 42.95580 34977 ft 563 kts 109°
2026-04-22 12:22 24.00742 43.03783 34986 ft 563 kts 108°
2026-04-22 12:22 23.98503 43.12027 34988 ft 564 kts 109°
2026-04-22 12:23 23.96288 43.20164 34987 ft 561 kts 108°
2026-04-22 12:23 23.94057 43.28344 34990 ft 563 kts 108°
2026-04-22 12:24 23.91816 43.36538 35004 ft 561 kts 108°
2026-04-22 12:24 23.89584 43.44683 35012 ft 562 kts 108°
2026-04-22 12:25 23.87333 43.52879 35013 ft 561 kts 108°
2026-04-22 12:25 23.85077 43.61071 35007 ft 563 kts 108°
2026-04-22 12:26 23.82898 43.68972 34980 ft 561 kts 109°
2026-04-22 12:26 23.80641 43.77134 34977 ft 562 kts 109°
2026-04-22 12:27 23.78435 43.85093 34979 ft 560 kts 109°
2026-04-22 12:27 23.77025 43.93491 34964 ft 561 kts 95°
2026-04-22 12:28 23.76391 44.02071 34955 ft 561 kts 94°
2026-04-22 12:28 23.75828 44.09754 34960 ft 560 kts 94°
2026-04-22 12:29 23.75194 44.18285 34970 ft 560 kts 95°
2026-04-22 12:29 23.74557 44.26751 34971 ft 561 kts 94°
2026-04-22 12:30 23.73595 44.39406 34985 ft 559 kts 95°
2026-04-22 12:31 23.72944 44.47881 34993 ft 561 kts 95°
2026-04-22 12:31 23.72287 44.56360 34997 ft 559 kts 94°
2026-04-22 12:32 23.71631 44.64772 34996 ft 560 kts 95°
2026-04-22 12:32 23.70653 44.77192 34973 ft 560 kts 95°
2026-04-22 12:33 23.69975 44.85739 34968 ft 558 kts 95°
2026-04-22 12:33 23.69313 44.94017 34964 ft 559 kts 95°
2026-04-22 12:34 23.68628 45.02517 34961 ft 559 kts 95°
2026-04-22 12:34 23.67945 45.10934 34959 ft 558 kts 95°
2026-04-22 12:35 23.67256 45.19374 34959 ft 560 kts 95°
2026-04-22 12:35 23.66561 45.27825 34963 ft 558 kts 95°
2026-04-22 12:36 23.65866 45.36228 34957 ft 559 kts 95°
2026-04-22 12:36 23.65163 45.44672 34953 ft 557 kts 95°
2026-04-22 12:37 23.64456 45.53108 34947 ft 559 kts 95°
2026-04-22 12:37 23.63747 45.61505 34942 ft 556 kts 95°
2026-04-22 12:38 23.63028 45.69963 34920 ft 559 kts 95°
2026-04-22 12:38 23.62336 45.78055 34914 ft 555 kts 95°
2026-04-22 12:39 23.61247 45.90685 34913 ft 557 kts 95°
2026-04-22 12:40 23.60557 45.98616 34920 ft 559 kts 95°
2026-04-22 12:40 23.59817 46.07085 34929 ft 556 kts 95°
2026-04-22 12:41 23.59079 46.15460 34941 ft 557 kts 95°
2026-04-22 12:41 23.58335 46.23862 34950 ft 556 kts 95°
2026-04-22 12:42 23.57591 46.32218 34966 ft 554 kts 95°
2026-04-22 12:42 23.56839 46.40608 34985 ft 557 kts 95°
2026-04-22 12:43 23.56085 46.48972 35000 ft 554 kts 95°
2026-04-22 12:43 23.55326 46.57330 35001 ft 557 kts 95°
2026-04-22 12:44 23.54563 46.65691 34979 ft 556 kts 95°
2026-04-22 12:44 23.53794 46.74062 34947 ft 555 kts 95°
2026-04-22 12:45 23.53021 46.82433 34935 ft 555 kts 95°
2026-04-22 12:45 23.52291 46.90293 34921 ft 555 kts 95°
2026-04-22 12:46 23.51515 46.98592 34911 ft 555 kts 95°
2026-04-22 12:46 23.50733 47.06912 34906 ft 553 kts 95°
2026-04-22 12:47 23.49942 47.15281 34907 ft 556 kts 96°
2026-04-22 12:47 23.49152 47.23593 34909 ft 552 kts 95°
2026-04-22 12:48 23.48354 47.31939 34908 ft 556 kts 96°
2026-04-22 12:48 23.47548 47.40319 34907 ft 554 kts 95°
2026-04-22 12:49 23.46744 47.48632 34906 ft 554 kts 95°
2026-04-22 12:49 23.45934 47.56962 34906 ft 553 kts 95°
2026-04-22 12:50 23.45120 47.65297 34901 ft 554 kts 96°
2026-04-22 12:50 23.44303 47.73617 34882 ft 551 kts 96°
2026-04-22 12:51 23.43506 47.81675 34879 ft 554 kts 96°
2026-04-22 12:51 23.42692 47.89874 34878 ft 553 kts 96°
2026-04-22 12:52 23.41862 47.98186 34872 ft 554 kts 95°
2026-04-22 12:52 23.41027 48.06501 34860 ft 553 kts 96°
2026-04-22 12:53 23.40189 48.14798 34860 ft 553 kts 96°
2026-04-22 12:53 23.39341 48.23159 34858 ft 554 kts 95°
2026-04-22 12:54 23.38190 48.31377 34854 ft 553 kts 106°
2026-04-22 12:54 23.35215 48.39058 34846 ft 547 kts 124°
2026-04-22 12:55 23.31182 48.46086 34846 ft 548 kts 126°
2026-04-22 12:55 23.27108 48.53058 34852 ft 546 kts 125°
2026-04-22 12:56 23.23029 48.60019 34853 ft 548 kts 126°
2026-04-22 12:56 23.18926 48.67005 34828 ft 547 kts 126°
2026-04-22 12:57 23.14809 48.74002 34818 ft 550 kts 126°
2026-04-22 12:57 23.10777 48.80845 34823 ft 547 kts 126°
2026-04-22 12:58 23.06655 48.87830 34807 ft 547 kts 126°
2026-04-22 12:58 23.02547 48.94780 34806 ft 548 kts 126°
2026-04-22 12:59 22.98443 49.01714 34798 ft 546 kts 126°
2026-04-22 12:59 22.94299 49.08705 34786 ft 549 kts 126°
2026-04-22 13:00 22.90196 49.15619 34792 ft 549 kts 126°
2026-04-22 13:00 22.86035 49.22619 34784 ft 549 kts 126°
2026-04-22 13:01 22.81900 49.29569 34781 ft 547 kts 126°
2026-04-22 13:01 22.77908 49.36266 34778 ft 551 kts 125°
2026-04-22 13:02 22.73741 49.43252 34771 ft 548 kts 126°
2026-04-22 13:02 22.69850 49.49764 34767 ft 551 kts 126°
2026-04-22 13:03 22.65753 49.56614 34769 ft 548 kts 126°
2026-04-22 13:03 22.61597 49.63551 34773 ft 548 kts 126°
2026-04-22 13:04 22.57439 49.70483 34754 ft 548 kts 126°
2026-04-22 13:04 22.53283 49.77403 34757 ft 549 kts 126°
2026-04-22 13:05 22.49262 49.84090 34746 ft 549 kts 126°
2026-04-22 13:05 22.45166 49.90893 34749 ft 549 kts 126°
2026-04-22 13:06 22.40991 49.97818 34749 ft 548 kts 126°
2026-04-22 13:06 22.36824 50.04721 34767 ft 548 kts 126°
2026-04-22 13:07 22.32667 50.11597 34766 ft 547 kts 126°
2026-04-22 13:07 22.28519 50.18451 34770 ft 548 kts 126°
2026-04-22 13:08 22.24344 50.25339 34768 ft 546 kts 126°
2026-04-22 13:08 22.20170 50.32217 34771 ft 548 kts 126°
2026-04-22 13:09 22.16019 50.39051 34769 ft 545 kts 126°
2026-04-22 13:09 22.11846 50.45910 34761 ft 547 kts 126°
2026-04-22 13:10 22.07686 50.52739 34770 ft 547 kts 126°
2026-04-22 13:10 22.03526 50.59586 34753 ft 546 kts 123°
2026-04-22 13:11 22.00467 50.67058 34743 ft 549 kts 105°
2026-04-22 13:11 21.99367 50.75193 34747 ft 547 kts 91°
2026-04-22 13:12 21.99091 50.83343 34745 ft 545 kts 90°
2026-04-22 13:12 21.98804 50.91151 34745 ft 547 kts 91°
2026-04-22 13:13 21.98478 50.99206 34743 ft 546 kts 91°
2026-04-22 13:13 21.98130 51.07389 34745 ft 544 kts 91°
2026-04-22 13:14 21.97771 51.15530 34743 ft 546 kts 91°
2026-04-22 13:14 21.97404 51.23663 34744 ft 544 kts 91°
2026-04-22 13:15 21.97032 51.31746 34751 ft 543 kts 91°
2026-04-22 13:15 21.96653 51.39878 34759 ft 545 kts 91°
2026-04-22 13:16 21.96267 51.48040 34764 ft 544 kts 91°
2026-04-22 13:16 21.95879 51.56161 34765 ft 545 kts 91°
2026-04-22 13:17 21.95485 51.64305 34761 ft 543 kts 91°
2026-04-22 13:17 21.95089 51.72422 34744 ft 543 kts 91°
2026-04-22 13:18 21.94699 51.80327 34747 ft 544 kts 91°
2026-04-22 13:18 21.94299 51.88345 34740 ft 545 kts 91°
2026-04-22 13:19 21.93899 51.96299 34736 ft 543 kts 91°
2026-04-22 13:19 21.93479 52.04560 34740 ft 545 kts 91°
2026-04-22 13:20 21.93063 52.12662 34744 ft 542 kts 91°
2026-04-22 13:20 21.92642 52.20786 34745 ft 543 kts 91°
2026-04-22 13:21 21.92220 52.28850 34746 ft 542 kts 91°
2026-04-22 13:21 21.91793 52.36943 34747 ft 544 kts 91°
2026-04-22 13:22 21.91359 52.45094 34748 ft 543 kts 91°
2026-04-22 13:22 21.90925 52.53164 34749 ft 544 kts 91°
2026-04-22 13:23 21.90485 52.61259 34753 ft 543 kts 91°
2026-04-22 13:23 21.90040 52.69397 34746 ft 544 kts 91°
2026-04-22 13:24 21.89592 52.77498 34742 ft 542 kts 91°
2026-04-22 13:24 21.89148 52.85469 34744 ft 543 kts 91°
2026-04-22 13:25 21.88693 52.93562 34748 ft 542 kts 91°
2026-04-22 13:25 21.88232 53.01685 34749 ft 542 kts 91°
2026-04-22 13:26 21.87789 53.09417 34749 ft 542 kts 91°
2026-04-22 13:26 21.87322 53.17511 34752 ft 542 kts 91°
2026-04-22 13:27 21.86870 53.25281 34754 ft 542 kts 91°
2026-04-22 13:27 21.86420 53.32961 34753 ft 541 kts 91°
2026-04-22 13:28 21.85950 53.40911 34757 ft 541 kts 91°
2026-04-22 13:28 21.85469 53.48983 34758 ft 541 kts 91°
2026-04-22 13:29 21.84984 53.57047 34760 ft 541 kts 91°
2026-04-22 13:29 21.84492 53.65165 34761 ft 541 kts 91°
2026-04-22 13:30 21.84003 53.73173 34748 ft 538 kts 91°
2026-04-22 13:30 21.83505 53.81260 34749 ft 541 kts 91°
2026-04-22 13:31 21.83025 53.88994 34747 ft 539 kts 91°
2026-04-22 13:31 21.82521 53.97064 34747 ft 539 kts 91°
2026-04-22 13:32 21.82013 54.05119 34765 ft 538 kts 91°
2026-04-22 13:32 21.81505 54.13123 34773 ft 539 kts 91°
2026-04-22 13:33 21.80988 54.21198 34780 ft 538 kts 91°
2026-04-22 13:33 21.80472 54.29189 34785 ft 539 kts 91°
2026-04-22 13:34 21.79951 54.37206 34778 ft 538 kts 91°
2026-04-22 13:34 21.79424 54.45258 34770 ft 539 kts 91°
2026-04-22 13:35 21.78899 54.53222 34766 ft 537 kts 91°
2026-04-22 13:35 21.78366 54.61247 34766 ft 538 kts 91°
2026-04-22 13:36 21.77827 54.69297 34757 ft 536 kts 92°
2026-04-22 13:36 21.77299 54.77123 34761 ft 536 kts 91°
2026-04-22 13:37 21.76770 54.84917 34761 ft 535 kts 91°
2026-04-22 13:37 21.76221 54.92957 34773 ft 535 kts 91°
2026-04-22 13:38 21.75672 55.00921 34777 ft 535 kts 91°
2026-04-22 13:38 21.74841 55.12891 34777 ft 535 kts 91°
2026-04-22 13:39 21.74281 55.20886 34773 ft 535 kts 91°
2026-04-22 13:39 21.73719 55.28854 34769 ft 535 kts 91°
2026-04-22 13:40 21.73154 55.36805 34772 ft 535 kts 91°
2026-04-22 13:40 21.72584 55.44781 34775 ft 534 kts 91°
2026-04-22 13:41 21.72013 55.52714 34773 ft 535 kts 91°
2026-04-22 13:41 21.71465 55.60673 34770 ft 534 kts 90°
2026-04-22 13:42 21.71017 55.68654 34756 ft 532 kts 90°
2026-04-22 13:42 21.70578 55.76382 34755 ft 533 kts 90°
2026-04-22 13:43 21.70121 55.84307 34756 ft 533 kts 91°
2026-04-22 13:43 21.69677 55.91897 34756 ft 533 kts 91°
2026-04-22 13:44 21.69210 55.99812 34756 ft 533 kts 90°
2026-04-22 13:44 21.68736 56.07768 34762 ft 532 kts 90°
2026-04-22 13:45 21.68258 56.15718 34770 ft 532 kts 91°
2026-04-22 13:45 21.67782 56.23570 34776 ft 529 kts 90°
2026-04-22 13:46 21.67298 56.31493 34788 ft 531 kts 90°
2026-04-22 13:46 21.66814 56.39350 34796 ft 528 kts 90°
2026-04-22 13:47 21.66325 56.47236 34799 ft 530 kts 90°
2026-04-22 13:47 21.65835 56.55078 34799 ft 528 kts 90°
2026-04-22 13:48 21.65338 56.62958 34802 ft 528 kts 90°
2026-04-22 13:48 21.64839 56.70814 34784 ft 528 kts 91°
2026-04-22 13:49 21.64337 56.78672 34788 ft 526 kts 91°
2026-04-22 13:49 21.63847 56.86269 34794 ft 526 kts 91°
2026-04-22 13:50 21.63348 56.93963 34796 ft 526 kts 91°
2026-04-22 13:50 21.62838 57.01762 34801 ft 524 kts 91°
2026-04-22 13:51 21.62324 57.09575 34804 ft 525 kts 90°
2026-04-22 13:51 21.61807 57.17358 34805 ft 522 kts 90°
2026-04-22 13:52 21.61283 57.25179 34812 ft 525 kts 91°
2026-04-22 13:52 21.60757 57.32974 34813 ft 523 kts 91°
2026-04-22 13:53 21.60232 57.40717 34818 ft 522 kts 90°
2026-04-22 13:53 21.59700 57.48492 34831 ft 524 kts 90°
2026-04-22 13:54 21.59163 57.56306 34824 ft 522 kts 91°
2026-04-22 13:54 21.58624 57.64056 34835 ft 522 kts 91°
2026-04-22 13:55 21.57103 57.71754 34820 ft 527 kts 104°
2026-04-22 13:55 21.54990 57.79300 34818 ft 527 kts 104°
2026-04-22 13:56 21.52884 57.86783 34821 ft 526 kts 104°
2026-04-22 13:56 21.50779 57.94255 34813 ft 525 kts 105°
2026-04-22 13:57 21.48662 58.01754 34813 ft 525 kts 104°
2026-04-22 13:57 21.46550 58.09227 34813 ft 523 kts 104°
2026-04-22 13:58 21.44430 58.16713 34815 ft 524 kts 104°
2026-04-22 13:58 21.42312 58.24178 34807 ft 523 kts 104°
2026-04-22 13:59 21.40186 58.31658 34815 ft 522 kts 104°
2026-04-22 13:59 21.38069 58.39093 34824 ft 523 kts 104°
2026-04-22 14:00 21.35950 58.46522 34820 ft 522 kts 104°
2026-04-22 14:00 21.33815 58.53992 34818 ft 522 kts 104°
2026-04-22 14:01 21.31689 58.61417 34828 ft 520 kts 104°
2026-04-22 14:01 21.29564 58.68826 34820 ft 521 kts 104°
2026-04-22 14:02 21.27447 58.76195 34827 ft 520 kts 105°
2026-04-22 14:02 21.25308 58.83620 34819 ft 518 kts 104°
2026-04-22 14:03 21.23191 58.90958 34817 ft 518 kts 104°
2026-04-22 14:03 21.21059 58.98333 34815 ft 517 kts 104°
2026-04-22 14:04 21.18929 59.05690 34807 ft 519 kts 104°
2026-04-22 14:04 21.16787 59.13073 34813 ft 517 kts 104°
2026-04-22 14:05 21.14660 59.20393 34811 ft 517 kts 104°
2026-04-22 14:06 21.11455 59.31395 34818 ft 516 kts 104°
2026-04-22 14:06 21.09318 59.38714 34818 ft 517 kts 104°
2026-04-22 14:07 21.07178 59.46032 34819 ft 516 kts 104°
2026-04-22 14:07 21.05032 59.53359 34822 ft 515 kts 104°
2026-04-22 14:08 21.02894 59.60646 34820 ft 515 kts 104°
2026-04-22 14:08 21.00753 59.67930 34826 ft 514 kts 105°
2026-04-22 14:09 20.98562 59.75223 34838 ft 513 kts 105°
2026-04-22 14:09 20.96354 59.82472 34829 ft 514 kts 105°
2026-04-22 14:10 20.94137 59.89744 34826 ft 513 kts 105°
2026-04-22 14:10 20.91919 59.97011 34834 ft 514 kts 105°
2026-04-22 14:11 20.89706 60.04251 34830 ft 514 kts 105°
2026-04-22 14:11 20.87497 60.11466 34826 ft 511 kts 105°
2026-04-22 14:12 20.85283 60.18687 34828 ft 511 kts 105°
2026-04-22 14:12 20.83081 60.25863 34829 ft 512 kts 105°
2026-04-22 14:13 20.80863 60.33072 34834 ft 509 kts 105°
2026-04-22 14:13 20.78657 60.40231 34834 ft 508 kts 105°
2026-04-22 14:14 20.76446 60.47401 34834 ft 509 kts 105°
2026-04-22 14:14 20.74225 60.54586 34835 ft 508 kts 105°
2026-04-22 14:15 20.72023 60.61698 34841 ft 508 kts 105°
2026-04-22 14:15 20.69793 60.68890 34835 ft 506 kts 105°
2026-04-22 14:16 20.67580 60.76015 34833 ft 508 kts 105°
2026-04-22 14:16 20.65357 60.83162 34834 ft 506 kts 106°
2026-04-22 14:17 20.63143 60.90266 34845 ft 504 kts 106°
2026-04-22 14:17 20.60371 60.97097 34848 ft 507 kts 119°
2026-04-22 14:18 20.56590 61.03513 34852 ft 509 kts 121°
2026-04-22 14:18 20.52797 61.09865 34863 ft 509 kts 121°
2026-04-22 14:19 20.48990 61.16232 34863 ft 508 kts 121°
2026-04-22 14:19 20.45221 61.22529 34860 ft 506 kts 121°
2026-04-22 14:20 20.39526 61.32031 34861 ft 506 kts 121°
2026-04-22 14:20 20.35732 61.38353 34865 ft 505 kts 121°
2026-04-22 14:21 20.30056 61.47797 34866 ft 505 kts 121°
2026-04-22 14:22 20.24403 61.57189 34867 ft 505 kts 121°
2026-04-22 14:23 20.18704 61.66642 34867 ft 505 kts 122°
2026-04-22 14:23 20.14950 61.72860 34863 ft 501 kts 122°
2026-04-22 14:24 20.11179 61.79100 34860 ft 502 kts 122°
2026-04-22 14:24 20.07415 61.85319 34868 ft 500 kts 122°
2026-04-22 14:25 20.03642 61.91550 34868 ft 499 kts 122°
2026-04-22 14:25 19.99898 61.97725 34854 ft 499 kts 122°
2026-04-22 14:26 19.96136 62.03925 34855 ft 499 kts 122°
2026-04-22 14:26 19.92381 62.10105 34848 ft 498 kts 122°
2026-04-22 14:27 19.88625 62.16280 34851 ft 500 kts 122°
2026-04-22 14:27 19.84845 62.22489 34842 ft 499 kts 122°
2026-04-22 14:28 19.81070 62.28683 34851 ft 500 kts 122°
2026-04-22 14:28 19.77292 62.34875 34868 ft 500 kts 122°
2026-04-22 14:29 19.73528 62.41039 34875 ft 499 kts 122°
2026-04-22 14:29 19.69756 62.47208 34871 ft 499 kts 122°
2026-04-22 14:30 19.65970 62.53394 34876 ft 499 kts 122°
2026-04-22 14:30 19.62172 62.59594 34875 ft 500 kts 122°
2026-04-22 14:31 19.58380 62.65778 34872 ft 500 kts 122°
2026-04-22 14:31 19.54579 62.71969 34875 ft 500 kts 122°
2026-04-22 14:32 19.50786 62.78141 34874 ft 500 kts 122°
2026-04-22 14:32 19.46994 62.84307 34869 ft 499 kts 122°
2026-04-22 14:33 19.43212 62.90449 34866 ft 500 kts 122°
2026-04-22 14:33 19.39406 62.96623 34870 ft 500 kts 122°
2026-04-22 14:34 19.35588 63.02811 34868 ft 499 kts 122°
2026-04-22 14:34 19.31790 63.08960 34872 ft 498 kts 122°
2026-04-22 14:35 19.28017 63.15063 34871 ft 499 kts 122°
2026-04-22 14:35 19.24215 63.21205 34875 ft 498 kts 122°
2026-04-22 14:36 19.20408 63.27350 34874 ft 498 kts 122°
2026-04-22 14:36 19.16617 63.33464 34871 ft 498 kts 122°
2026-04-22 14:37 19.12815 63.39589 34872 ft 499 kts 122°
2026-04-22 14:37 19.09024 63.45691 34876 ft 498 kts 122°
2026-04-22 14:38 19.05230 63.51790 34870 ft 497 kts 122°
2026-04-22 14:38 19.01425 63.57903 34873 ft 497 kts 122°
2026-04-22 14:39 18.97622 63.64006 34876 ft 498 kts 122°
2026-04-22 14:39 18.93808 63.70124 34869 ft 497 kts 122°
2026-04-22 14:40 18.88106 63.79259 34869 ft 499 kts 122°
2026-04-22 14:40 18.84273 63.85393 34869 ft 498 kts 122°
2026-04-22 14:41 18.80472 63.91468 34866 ft 498 kts 122°
2026-04-22 14:41 18.76654 63.97566 34868 ft 498 kts 122°
2026-04-22 14:42 18.72827 64.03671 34876 ft 499 kts 122°
2026-04-22 14:42 18.69007 64.09762 34885 ft 498 kts 122°
2026-04-22 14:43 18.65178 64.15858 34890 ft 498 kts 122°
2026-04-22 14:43 18.61354 64.21941 34889 ft 497 kts 122°
2026-04-22 14:44 18.57542 64.27999 34891 ft 498 kts 122°
2026-04-22 14:44 18.53712 64.34081 34892 ft 498 kts 122°
2026-04-22 14:45 18.49889 64.40144 34891 ft 498 kts 122°
2026-04-22 14:45 18.46040 64.46244 34888 ft 498 kts 122°
2026-04-22 14:46 18.42210 64.52309 34894 ft 498 kts 122°
2026-04-22 14:46 18.38386 64.58357 34892 ft 498 kts 122°
2026-04-22 14:47 18.34557 64.64408 34890 ft 498 kts 122°
2026-04-22 14:47 18.30700 64.70497 34890 ft 498 kts 122°
2026-04-22 14:48 18.26867 64.76543 34893 ft 498 kts 122°
2026-04-22 14:48 18.23018 64.82609 34893 ft 498 kts 122°
2026-04-22 14:49 18.19169 64.88668 34889 ft 498 kts 122°
2026-04-22 14:49 18.15327 64.94711 34893 ft 498 kts 122°
2026-04-22 14:50 18.11471 65.00770 34891 ft 498 kts 122°
2026-04-22 14:50 18.07616 65.06822 34893 ft 498 kts 122°
2026-04-22 14:51 18.03777 65.12843 34894 ft 497 kts 122°
2026-04-22 14:51 17.99946 65.18847 34892 ft 497 kts 122°
2026-04-22 14:52 17.96078 65.24902 34892 ft 497 kts 122°
2026-04-22 14:52 17.92224 65.30932 34894 ft 498 kts 122°
2026-04-22 14:53 17.88384 65.36932 34887 ft 496 kts 122°
2026-04-22 14:53 17.84525 65.42956 34887 ft 496 kts 122°
2026-04-22 14:54 17.80677 65.48959 34882 ft 496 kts 122°
2026-04-22 14:54 17.76836 65.54946 34880 ft 497 kts 122°
2026-04-22 14:55 17.72967 65.60970 34875 ft 496 kts 122°
2026-04-22 14:55 17.69113 65.66966 34871 ft 496 kts 123°
2026-04-22 14:56 17.65275 65.72930 34865 ft 494 kts 123°
2026-04-22 14:56 17.61424 65.78912 34866 ft 494 kts 122°
2026-04-22 14:57 17.57711 65.84919 34867 ft 494 kts 121°
2026-04-22 14:57 17.53989 65.90974 34869 ft 494 kts 121°
2026-04-22 14:58 17.50266 65.97019 34879 ft 496 kts 121°
2026-04-22 14:58 17.46526 66.03078 34891 ft 495 kts 121°
2026-04-22 14:59 17.42776 66.09147 34887 ft 493 kts 122°
2026-04-22 14:59 17.39046 66.15175 34891 ft 494 kts 122°
2026-04-22 15:00 17.35323 66.21187 34894 ft 494 kts 121°
2026-04-22 15:00 17.31586 66.27216 34890 ft 494 kts 122°
2026-04-22 15:01 17.27840 66.33253 34888 ft 494 kts 122°
2026-04-22 15:01 17.24086 66.39298 34892 ft 494 kts 122°
2026-04-22 15:02 17.20355 66.45299 34892 ft 495 kts 122°
2026-04-22 15:02 17.16596 66.51342 34891 ft 495 kts 122°
2026-04-22 15:03 17.12838 66.57375 34896 ft 494 kts 122°
2026-04-22 15:03 17.09069 66.63422 34892 ft 495 kts 122°
2026-04-22 15:04 17.05331 66.69416 34888 ft 494 kts 122°
2026-04-22 15:04 17.01565 66.75448 34892 ft 494 kts 123°
2026-04-22 15:05 16.97827 66.81429 34887 ft 494 kts 123°
2026-04-22 15:05 16.94049 66.87470 34889 ft 493 kts 123°
2026-04-22 15:06 16.90286 66.93481 34892 ft 495 kts 123°
2026-04-22 15:06 16.86526 66.99483 34885 ft 492 kts 123°
2026-04-22 15:07 16.82777 67.05462 34883 ft 495 kts 123°
2026-04-22 15:07 16.78991 67.11494 34878 ft 494 kts 123°
2026-04-22 15:08 16.75228 67.17484 34877 ft 495 kts 122°
2026-04-22 15:08 16.71460 67.23477 34879 ft 495 kts 122°
2026-04-22 15:09 16.67689 67.29471 34880 ft 495 kts 122°
2026-04-22 15:09 16.63899 67.35489 34883 ft 495 kts 122°
2026-04-22 15:10 16.60118 67.41488 34881 ft 495 kts 122°
2026-04-22 15:10 16.56334 67.47487 34881 ft 494 kts 123°
2026-04-22 15:11 16.52554 67.53473 34877 ft 495 kts 122°
2026-04-22 15:11 16.48771 67.59460 34878 ft 496 kts 123°
2026-04-22 15:12 16.44963 67.65482 34881 ft 495 kts 123°
2026-04-22 15:12 16.41172 67.71471 34872 ft 495 kts 123°
2026-04-22 15:13 16.37370 67.77473 34876 ft 496 kts 123°
2026-04-22 15:13 16.33565 67.83475 34881 ft 497 kts 123°
2026-04-22 15:14 16.29758 67.89474 34875 ft 495 kts 123°
2026-04-22 15:14 16.25963 67.95452 34866 ft 494 kts 123°
2026-04-22 15:15 16.22198 68.01443 34869 ft 494 kts 123°
2026-04-22 15:15 16.18418 68.07455 34867 ft 494 kts 123°
2026-04-22 15:16 16.14653 68.13436 34867 ft 495 kts 123°
2026-04-22 15:16 16.10886 68.19415 34866 ft 495 kts 123°
2026-04-22 15:17 16.07090 68.25434 34868 ft 496 kts 123°
2026-04-22 15:17 16.03301 68.31437 34870 ft 496 kts 123°
2026-04-22 15:18 15.99536 68.37395 34872 ft 496 kts 123°
2026-04-22 15:18 15.95717 68.43436 34872 ft 496 kts 123°
2026-04-22 15:19 15.91924 68.49430 34875 ft 496 kts 123°
2026-04-22 15:19 15.88112 68.55449 34871 ft 496 kts 123°
2026-04-22 15:20 15.84326 68.61422 34870 ft 496 kts 123°
2026-04-22 15:20 15.80522 68.67419 34867 ft 496 kts 124°
2026-04-22 15:21 15.76730 68.73392 34863 ft 496 kts 124°
2026-04-22 15:21 15.72920 68.79388 34865 ft 495 kts 124°
2026-04-22 15:22 15.69104 68.85390 34866 ft 496 kts 124°
2026-04-22 15:22 15.65294 68.91377 34866 ft 497 kts 124°
2026-04-22 15:23 15.61482 68.97362 34870 ft 496 kts 124°
2026-04-22 15:23 15.57693 69.03306 34869 ft 496 kts 124°
2026-04-22 15:24 15.53870 69.09299 34865 ft 496 kts 124°
2026-04-22 15:24 15.50070 69.15252 34864 ft 496 kts 124°
2026-04-22 15:25 15.46268 69.21201 34866 ft 496 kts 124°
2026-04-22 15:25 15.42446 69.27180 34865 ft 496 kts 125°
2026-04-22 15:26 15.38629 69.33143 34869 ft 497 kts 125°
2026-04-22 15:26 15.34810 69.39107 34870 ft 496 kts 125°
2026-04-22 15:27 15.30992 69.45064 34868 ft 496 kts 125°
2026-04-22 15:27 15.27247 69.50903 34871 ft 495 kts 125°
2026-04-22 15:28 15.23443 69.56828 34863 ft 495 kts 125°
2026-04-22 15:28 15.19618 69.62783 34859 ft 494 kts 125°
2026-04-22 15:29 15.15811 69.68704 34851 ft 492 kts 126°
2026-04-22 15:30 15.10136 69.77545 34850 ft 493 kts 126°
2026-04-22 15:30 15.06350 69.83521 34845 ft 492 kts 126°
2026-04-22 15:31 15.02594 69.89442 34844 ft 493 kts 126°
2026-04-22 15:31 14.98849 69.95342 34845 ft 491 kts 126°
2026-04-22 15:32 14.95085 70.01263 34845 ft 491 kts 126°
2026-04-22 15:32 14.91329 70.07169 34848 ft 491 kts 126°
2026-04-22 15:33 14.87581 70.13056 34849 ft 491 kts 126°
2026-04-22 15:33 14.83825 70.18951 34852 ft 489 kts 126°
2026-04-22 15:34 14.80070 70.24841 34852 ft 490 kts 126°
2026-04-22 15:34 14.76327 70.30707 34852 ft 488 kts 127°
2026-04-22 15:35 14.73209 70.35590 34852 ft 489 kts 127°
2026-04-22 15:35 14.68822 70.42454 34852 ft 488 kts 127°
2026-04-22 15:36 14.65094 70.48284 34852 ft 489 kts 127°
2026-04-22 15:36 14.61344 70.54144 34851 ft 488 kts 127°
2026-04-22 15:37 14.57592 70.60003 34855 ft 489 kts 128°
2026-04-22 15:37 14.53829 70.65874 34852 ft 488 kts 128°
2026-04-22 15:38 14.50109 70.71674 34848 ft 485 kts 128°
2026-04-22 15:38 14.44516 70.80386 34851 ft 486 kts 128°
2026-04-22 15:39 14.40780 70.86201 34848 ft 485 kts 129°
2026-04-22 15:39 14.37144 70.91857 34847 ft 483 kts 128°
2026-04-22 15:40 14.33441 70.97641 34843 ft 484 kts 128°
2026-04-22 15:40 14.29793 71.03426 34846 ft 482 kts 128°
2026-04-22 15:41 14.26125 71.09238 34842 ft 481 kts 129°
2026-04-22 15:41 14.22462 71.15031 34843 ft 483 kts 128°
2026-04-22 15:42 14.18799 71.20822 34830 ft 480 kts 129°
2026-04-22 15:42 14.15157 71.26573 34821 ft 483 kts 129°
2026-04-22 15:43 14.11486 71.32367 34828 ft 481 kts 129°
2026-04-22 15:43 14.07834 71.38126 34832 ft 480 kts 129°
2026-04-22 15:44 14.04178 71.43888 34830 ft 480 kts 129°
2026-04-22 15:44 14.00524 71.49642 34832 ft 479 kts 129°
2026-04-22 15:45 13.96866 71.55398 34832 ft 479 kts 129°
2026-04-22 15:45 13.93229 71.61118 34833 ft 477 kts 130°
2026-04-22 15:46 13.89596 71.66826 34826 ft 477 kts 130°
2026-04-22 15:46 13.85937 71.72573 34838 ft 477 kts 130°
2026-04-22 15:47 13.82321 71.78246 34832 ft 477 kts 130°
2026-04-22 15:47 13.78666 71.83979 34835 ft 477 kts 130°
2026-04-22 15:48 13.75042 71.89658 34832 ft 477 kts 130°
2026-04-22 15:48 13.71402 71.95359 34835 ft 477 kts 130°
2026-04-22 15:49 13.67780 72.01035 34832 ft 476 kts 130°
2026-04-22 15:49 13.64238 72.06763 34826 ft 473 kts 130°
2026-04-22 15:50 13.60680 72.12518 34830 ft 476 kts 129°
2026-04-22 15:50 13.57155 72.18217 34828 ft 473 kts 130°
2026-04-22 15:51 13.53609 72.23936 34829 ft 474 kts 130°
2026-04-22 15:51 13.50069 72.29644 34833 ft 472 kts 130°
2026-04-22 15:52 13.46528 72.35349 34836 ft 473 kts 130°
2026-04-22 15:52 13.43012 72.41009 34829 ft 470 kts 130°
2026-04-22 15:53 13.39468 72.46708 34837 ft 473 kts 130°
2026-04-22 15:53 13.35951 72.52363 34839 ft 470 kts 130°
2026-04-22 15:54 13.32425 72.58025 34836 ft 471 kts 130°
2026-04-22 15:54 13.28908 72.63671 34841 ft 471 kts 130°
2026-04-22 15:55 13.25373 72.69344 34833 ft 468 kts 130°
2026-04-22 15:55 13.21841 72.75005 34834 ft 470 kts 130°
2026-04-22 15:56 13.18315 72.80656 34841 ft 468 kts 130°
2026-04-22 15:56 13.14791 72.86298 34833 ft 468 kts 130°
2026-04-22 15:57 13.11278 72.91919 34829 ft 469 kts 130°
2026-04-22 15:57 13.07772 72.97526 34821 ft 469 kts 130°
2026-04-22 15:58 13.04232 73.03184 34822 ft 468 kts 130°
2026-04-22 15:58 13.00713 73.08804 34820 ft 469 kts 130°
2026-04-22 15:59 12.97205 73.14403 34818 ft 469 kts 130°
2026-04-22 15:59 12.93688 73.20015 34819 ft 466 kts 130°
2026-04-22 16:00 12.90162 73.25634 34818 ft 468 kts 130°
2026-04-22 16:00 12.86664 73.31210 34836 ft 466 kts 130°
2026-04-22 16:01 12.83150 73.36802 34838 ft 468 kts 130°
2026-04-22 16:01 12.79635 73.42396 34836 ft 465 kts 130°
2026-04-22 16:02 12.76119 73.47987 34837 ft 467 kts 130°
2026-04-22 16:02 12.72599 73.53581 34838 ft 465 kts 130°
2026-04-22 16:03 12.69084 73.59161 34844 ft 468 kts 130°
2026-04-22 16:03 12.65569 73.64741 34849 ft 466 kts 130°
2026-04-22 16:04 12.62069 73.70294 34845 ft 464 kts 130°
2026-04-22 16:04 12.58532 73.75899 34847 ft 467 kts 130°
2026-04-22 16:05 12.55105 73.81330 34847 ft 465 kts 130°
2026-04-22 16:05 12.51586 73.86902 34848 ft 466 kts 130°
2026-04-22 16:06 12.48061 73.92480 34847 ft 466 kts 130°
2026-04-22 16:06 12.44556 73.98023 34847 ft 465 kts 130°
2026-04-22 16:07 12.41040 74.03580 34846 ft 466 kts 130°
2026-04-22 16:07 12.37496 74.09178 34846 ft 465 kts 130°
2026-04-22 16:08 12.33998 74.14702 34845 ft 464 kts 130°
2026-04-22 16:08 12.30450 74.20298 34845 ft 465 kts 130°
2026-04-22 16:09 12.26940 74.25834 34845 ft 465 kts 130°
2026-04-22 16:09 12.23376 74.31306 34844 ft 462 kts 131°
2026-04-22 16:10 12.19739 74.36786 34845 ft 465 kts 131°
2026-04-22 16:10 12.16127 74.42239 34844 ft 462 kts 131°
2026-04-22 16:11 12.12529 74.47667 34839 ft 464 kts 131°
2026-04-22 16:11 12.08912 74.53126 34836 ft 464 kts 131°
2026-04-22 16:12 12.05277 74.58610 34834 ft 463 kts 130°
2026-04-22 16:12 12.01651 74.64077 34830 ft 466 kts 130°
2026-04-22 16:13 11.98007 74.69571 34819 ft 463 kts 131°
2026-04-22 16:13 11.94467 74.74904 34816 ft 463 kts 131°
2026-04-22 16:14 11.90929 74.80230 34817 ft 463 kts 130°
2026-04-22 16:14 11.87326 74.85651 34833 ft 464 kts 131°
2026-04-22 16:15 11.83686 74.91126 34837 ft 463 kts 130°
2026-04-22 16:15 11.80062 74.96575 34834 ft 462 kts 130°
2026-04-22 16:16 11.76436 75.02020 34837 ft 464 kts 130°
2026-04-22 16:16 11.72805 75.07473 34835 ft 462 kts 130°
2026-04-22 16:17 11.69191 75.12897 34844 ft 463 kts 130°
2026-04-22 16:17 11.65583 75.18308 34853 ft 462 kts 130°
2026-04-22 16:18 11.61942 75.23766 34856 ft 463 kts 130°
2026-04-22 16:18 11.58316 75.29199 34857 ft 462 kts 130°
2026-04-22 16:19 11.54681 75.34642 34858 ft 462 kts 130°
2026-04-22 16:19 11.51061 75.40060 34861 ft 463 kts 130°
2026-04-22 16:20 11.47422 75.45503 34859 ft 462 kts 130°
2026-04-22 16:20 11.43821 75.50887 34858 ft 462 kts 130°
2026-04-22 16:21 11.40172 75.56338 34856 ft 462 kts 130°
2026-04-22 16:21 11.36566 75.61725 34859 ft 463 kts 130°
2026-04-22 16:22 11.31119 75.69855 34853 ft 459 kts 130°
2026-04-22 16:23 11.25720 75.77904 34850 ft 460 kts 130°
2026-04-22 16:23 11.22106 75.83278 34848 ft 459 kts 131°
2026-04-22 16:24 11.16537 75.91222 34849 ft 459 kts 131°
2026-04-22 16:25 11.12803 75.96554 34840 ft 460 kts 129°
2026-04-22 16:25 11.07764 76.04900 34846 ft 463 kts 127°
2026-04-22 16:26 11.04380 76.10538 34852 ft 462 kts 127°
2026-04-22 16:26 11.01026 76.16098 34853 ft 463 kts 127°
2026-04-22 16:27 10.97648 76.21685 34855 ft 463 kts 127°
2026-04-22 16:27 10.94256 76.27284 34857 ft 463 kts 127°
2026-04-22 16:28 10.90867 76.32873 34862 ft 464 kts 127°
2026-04-22 16:28 10.87490 76.38437 34867 ft 462 kts 127°
2026-04-22 16:29 10.84110 76.44003 34857 ft 461 kts 127°
2026-04-22 16:29 10.80720 76.49582 34866 ft 461 kts 127°
2026-04-22 16:30 10.77338 76.55142 34873 ft 462 kts 127°
2026-04-22 16:30 10.73955 76.60705 34877 ft 461 kts 127°
2026-04-22 16:31 10.70679 76.66087 34891 ft 462 kts 127°
2026-04-22 16:31 10.67292 76.71648 34908 ft 461 kts 127°
2026-04-22 16:32 10.64072 76.76932 34933 ft 460 kts 127°
2026-04-22 16:32 10.60728 76.82417 34947 ft 462 kts 127°
2026-04-22 16:33 10.57377 76.87912 34944 ft 461 kts 127°
2026-04-22 16:33 10.53971 76.93494 34954 ft 462 kts 127°
2026-04-22 16:34 10.50579 76.99050 34949 ft 461 kts 127°
2026-04-22 16:34 10.47206 77.04572 34958 ft 461 kts 127°
2026-04-22 16:35 10.43809 77.10130 34984 ft 462 kts 127°
2026-04-22 16:35 10.40406 77.15694 35000 ft 462 kts 127°
2026-04-22 16:36 10.37030 77.21214 35022 ft 460 kts 127°
2026-04-22 16:36 10.33644 77.26747 35033 ft 460 kts 127°
2026-04-22 16:37 10.30241 77.32303 35071 ft 461 kts 127°
2026-04-22 16:37 10.26861 77.37820 35115 ft 461 kts 127°
2026-04-22 16:38 10.23468 77.43356 35163 ft 461 kts 127°
2026-04-22 16:38 10.20077 77.48885 35156 ft 461 kts 127°
2026-04-22 16:39 10.16662 77.54451 35086 ft 461 kts 127°
2026-04-22 16:39 10.13261 77.59992 35020 ft 460 kts 127°
2026-04-22 16:40 10.09894 77.65475 34973 ft 460 kts 127°
2026-04-22 16:41 10.04788 77.73783 34920 ft 461 kts 127°
2026-04-22 16:41 10.01373 77.79337 34907 ft 462 kts 127°
2026-04-22 16:42 9.97966 77.84875 34892 ft 462 kts 127°
2026-04-22 16:42 9.94554 77.90418 34881 ft 461 kts 127°
2026-04-22 16:43 9.91142 77.95959 34877 ft 462 kts 127°
2026-04-22 16:43 9.87735 78.01490 34881 ft 461 kts 127°
2026-04-22 16:44 9.84325 78.07029 34879 ft 461 kts 126°
2026-04-22 16:44 9.81767 78.13036 34887 ft 469 kts 113°
2026-04-22 16:45 9.79718 78.19360 34884 ft 471 kts 113°
2026-04-22 16:45 9.77669 78.25682 34876 ft 470 kts 113°
2026-04-22 16:46 9.75625 78.31973 34873 ft 470 kts 113°
2026-04-22 16:46 9.73570 78.38284 34872 ft 471 kts 113°
2026-04-22 16:47 9.71522 78.44570 34862 ft 470 kts 113°
2026-04-22 16:47 9.69470 78.50864 34862 ft 469 kts 113°
2026-04-22 16:48 9.67427 78.57122 34858 ft 470 kts 113°
2026-04-22 16:48 9.65367 78.63429 34855 ft 469 kts 113°
2026-04-22 16:49 9.63318 78.69694 34853 ft 470 kts 113°
2026-04-22 16:49 9.61285 78.75911 34849 ft 470 kts 113°
2026-04-22 16:50 9.59234 78.82175 34852 ft 470 kts 113°
2026-04-22 16:50 9.57182 78.88441 34848 ft 470 kts 113°
2026-04-22 16:51 9.55121 78.94727 34850 ft 470 kts 113°
2026-04-22 16:51 9.53064 79.01000 34848 ft 469 kts 113°
2026-04-22 16:52 9.51011 79.07252 34849 ft 469 kts 113°
2026-04-22 16:52 9.48948 79.13532 34851 ft 469 kts 113°
2026-04-22 16:53 9.46868 79.19785 34848 ft 468 kts 113°
2026-04-22 16:53 9.44783 79.26045 34849 ft 470 kts 113°
2026-04-22 16:54 9.42709 79.32272 34848 ft 468 kts 113°
2026-04-22 16:54 9.40622 79.38532 34847 ft 469 kts 113°
2026-04-22 16:55 9.38537 79.44785 34847 ft 468 kts 113°
2026-04-22 16:55 9.36452 79.51032 34848 ft 469 kts 113°
2026-04-22 16:56 9.34373 79.57261 34847 ft 469 kts 113°
2026-04-22 16:56 9.32292 79.63489 34847 ft 468 kts 113°
2026-04-22 16:57 9.30207 79.69741 34845 ft 468 kts 113°
2026-04-22 16:57 9.28115 79.76021 34846 ft 468 kts 113°
2026-04-22 16:58 9.26387 79.81203 34849 ft 468 kts 113°
2026-04-22 16:58 9.23968 79.88457 34859 ft 467 kts 113°
2026-04-22 16:59 9.21883 79.94702 34852 ft 468 kts 113°
2026-04-22 16:59 9.19800 80.00939 34842 ft 467 kts 113°
2026-04-22 17:00 9.17731 80.07127 34847 ft 468 kts 112°
2026-04-22 17:00 9.14593 80.16511 34850 ft 467 kts 112°
2026-04-22 17:01 9.12527 80.22684 34850 ft 467 kts 112°
2026-04-22 17:01 9.10432 80.28938 34854 ft 467 kts 112°
2026-04-22 17:02 9.08351 80.35148 34850 ft 466 kts 112°
2026-04-22 17:02 9.06261 80.41381 34849 ft 466 kts 112°
2026-04-22 17:03 9.04176 80.47594 34852 ft 467 kts 112°
2026-04-22 17:03 9.02107 80.53757 34852 ft 465 kts 112°
2026-04-22 17:04 9.00007 80.60007 34851 ft 468 kts 112°
2026-04-22 17:04 8.97924 80.66203 34852 ft 467 kts 112°
2026-04-22 17:05 8.95836 80.72411 34850 ft 467 kts 112°
2026-04-22 17:05 8.93752 80.78603 34851 ft 467 kts 112°
2026-04-22 17:06 8.91649 80.84847 34846 ft 467 kts 112°
2026-04-22 17:06 8.89568 80.91025 34851 ft 466 kts 112°
2026-04-22 17:07 8.87464 80.97265 34855 ft 466 kts 112°
2026-04-22 17:07 8.85384 81.03427 34853 ft 467 kts 112°
2026-04-22 17:08 8.83281 81.09659 34852 ft 467 kts 112°
2026-04-22 17:08 8.81182 81.15872 34851 ft 467 kts 112°
2026-04-22 17:09 8.79080 81.22091 34851 ft 467 kts 112°
2026-04-22 17:09 8.76984 81.28288 34850 ft 466 kts 112°
2026-04-22 17:10 8.74888 81.34483 34854 ft 466 kts 112°
2026-04-22 17:10 8.72798 81.40655 34860 ft 466 kts 111°
2026-04-22 17:11 8.70691 81.46875 34866 ft 467 kts 111°
2026-04-22 17:11 8.68595 81.53057 34870 ft 467 kts 112°
2026-04-22 17:12 8.66486 81.59274 34870 ft 467 kts 112°
2026-04-22 17:12 8.64372 81.65504 34869 ft 467 kts 112°
2026-04-22 17:13 8.62272 81.71687 34869 ft 468 kts 111°
2026-04-22 17:13 8.60164 81.77891 34870 ft 468 kts 111°
2026-04-22 17:14 8.58046 81.84122 34869 ft 468 kts 112°
2026-04-22 17:14 8.55936 81.90321 34866 ft 468 kts 111°
2026-04-22 17:15 8.53824 81.96526 34862 ft 468 kts 112°
2026-04-22 17:15 8.51704 82.02750 34859 ft 469 kts 111°
2026-04-22 17:16 8.49596 82.08939 34861 ft 468 kts 112°
2026-04-22 17:16 8.47466 82.15184 34856 ft 468 kts 111°
2026-04-22 17:17 8.45354 82.21375 34853 ft 469 kts 111°
2026-04-22 17:17 8.43238 82.27573 34850 ft 469 kts 111°
2026-04-22 17:18 8.41105 82.33817 34848 ft 469 kts 111°
2026-04-22 17:18 8.38987 82.40016 34847 ft 469 kts 111°
2026-04-22 17:19 8.34740 82.52432 34847 ft 469 kts 111°
2026-04-22 17:20 8.30479 82.64874 34847 ft 469 kts 111°
2026-04-22 17:21 8.27271 82.74234 34846 ft 469 kts 111°
2026-04-22 17:22 8.24079 82.83538 34846 ft 468 kts 111°
2026-04-22 17:23 8.21034 82.92721 34845 ft 468 kts 110°
2026-04-22 17:23 8.18050 83.02109 34850 ft 468 kts 110°
2026-04-22 17:24 8.16062 83.08340 34861 ft 469 kts 110°
2026-04-22 17:24 8.14057 83.14614 34865 ft 469 kts 110°
2026-04-22 17:25 8.12061 83.20853 34866 ft 469 kts 110°
2026-04-22 17:25 8.10063 83.27093 34864 ft 469 kts 110°
2026-04-22 17:26 8.08054 83.33360 34898 ft 476 kts 110°
2026-04-22 17:26 8.07033 83.36545 35310 ft 479 kts 110°
2026-04-22 17:26 8.06010 83.39735 36119 ft 475 kts 110°
2026-04-22 17:27 8.05000 83.42886 36788 ft 473 kts 110°
2026-04-22 17:27 8.03989 83.46034 36859 ft 475 kts 110°
2026-04-22 17:27 8.01963 83.52345 36867 ft 471 kts 110°
2026-04-22 17:28 7.99943 83.58632 36867 ft 472 kts 110°
2026-04-22 17:28 7.97925 83.64912 36865 ft 471 kts 110°
2026-04-22 17:29 7.95899 83.71211 36868 ft 472 kts 110°
2026-04-22 17:29 7.93888 83.77459 36863 ft 471 kts 110°
2026-04-22 17:30 7.91854 83.83778 36867 ft 472 kts 110°
2026-04-22 17:30 7.89835 83.90045 36863 ft 471 kts 110°
2026-04-22 17:31 7.87814 83.96316 36872 ft 472 kts 110°
2026-04-22 17:31 7.85780 84.02620 36867 ft 472 kts 110°
2026-04-22 17:32 7.83763 84.08871 36856 ft 471 kts 110°
2026-04-22 17:32 7.81725 84.15183 36847 ft 471 kts 110°
2026-04-22 17:33 7.79695 84.21467 36851 ft 471 kts 110°
2026-04-22 17:33 7.77672 84.27724 36852 ft 472 kts 110°
2026-04-22 17:34 7.75628 84.34045 36847 ft 472 kts 110°
2026-04-22 17:34 7.73594 84.40332 36846 ft 472 kts 110°
2026-04-22 17:35 7.71553 84.46637 36849 ft 471 kts 110°
2026-04-22 17:35 7.69522 84.52903 36848 ft 472 kts 110°
2026-04-22 17:36 7.67478 84.59212 36846 ft 472 kts 110°
2026-04-22 17:36 7.65443 84.65486 36849 ft 472 kts 110°
2026-04-22 17:37 7.63399 84.71785 36846 ft 472 kts 110°
2026-04-22 17:37 7.61348 84.78104 36851 ft 472 kts 110°
2026-04-22 17:38 7.59300 84.84409 36861 ft 472 kts 110°
2026-04-22 17:38 7.57252 84.90710 36866 ft 472 kts 110°
2026-04-22 17:39 7.55216 84.96970 36866 ft 471 kts 110°
2026-04-22 17:40 7.52147 85.06403 36870 ft 472 kts 110°
2026-04-22 17:40 7.50097 85.12698 36867 ft 472 kts 110°
2026-04-22 17:41 7.48053 85.18973 36868 ft 473 kts 110°
2026-04-22 17:41 7.45994 85.25289 36867 ft 472 kts 110°
2026-04-22 17:42 7.43938 85.31584 36866 ft 480 kts 110°
2026-04-22 17:42 7.41587 85.37959 36870 ft 485 kts 112°
2026-04-22 17:43 7.39224 85.44268 36866 ft 484 kts 112°
2026-04-22 17:43 7.36845 85.50637 36869 ft 484 kts 112°
2026-04-22 17:44 7.34487 85.56967 36868 ft 484 kts 112°
2026-04-22 17:44 7.32111 85.63348 36869 ft 483 kts 112°
2026-04-22 17:45 7.29750 85.69688 36867 ft 484 kts 112°
2026-04-22 17:45 7.27379 85.76058 36867 ft 484 kts 112°
2026-04-22 17:46 7.25024 85.82381 36867 ft 482 kts 112°
2026-04-22 17:46 7.22668 85.88703 36869 ft 482 kts 112°
2026-04-22 17:47 7.20296 85.95067 36869 ft 484 kts 112°
2026-04-22 17:47 7.17938 86.01392 36866 ft 484 kts 112°
2026-04-22 17:48 7.15955 86.06706 36863 ft 483 kts 112°
2026-04-22 17:48 7.13208 86.14067 36864 ft 483 kts 112°
2026-04-22 17:49 7.10843 86.20400 36858 ft 482 kts 112°
2026-04-22 17:49 7.08488 86.26704 36854 ft 482 kts 112°
2026-04-22 17:50 7.06129 86.33017 36849 ft 482 kts 112°
2026-04-22 17:50 7.03774 86.39315 36842 ft 482 kts 112°
2026-04-22 17:51 7.01411 86.45631 36844 ft 482 kts 112°
2026-04-22 17:51 6.99045 86.51954 36844 ft 483 kts 112°
2026-04-22 17:52 6.96672 86.58291 36843 ft 483 kts 112°
2026-04-22 17:52 6.94313 86.64588 36843 ft 482 kts 112°
2026-04-22 17:53 6.91952 86.70887 36854 ft 481 kts 112°
2026-04-22 17:53 6.89584 86.77202 36867 ft 481 kts 112°
2026-04-22 17:54 6.87219 86.83508 36867 ft 482 kts 112°
2026-04-22 17:54 6.84857 86.89801 36867 ft 482 kts 112°
2026-04-22 17:55 6.82883 86.95058 36871 ft 483 kts 112°
2026-04-22 17:55 6.80114 87.02432 36869 ft 483 kts 112°
2026-04-22 17:56 6.77739 87.08752 36869 ft 482 kts 112°
2026-04-22 17:56 6.75373 87.15045 36869 ft 481 kts 112°
2026-04-22 17:57 6.73007 87.21336 36868 ft 482 kts 112°
2026-04-22 17:57 6.70638 87.27632 36868 ft 481 kts 112°
2026-04-22 17:58 6.68264 87.33937 36868 ft 483 kts 111°
2026-04-22 17:58 6.65883 87.40260 36868 ft 483 kts 111°
2026-04-22 17:59 6.63500 87.46584 36868 ft 483 kts 111°
2026-04-22 17:59 6.61131 87.52869 36867 ft 482 kts 111°
2026-04-22 18:00 6.59150 87.58124 36867 ft 483 kts 111°
2026-04-22 18:00 6.56363 87.65510 36867 ft 483 kts 111°
2026-04-22 18:01 6.53971 87.71847 36868 ft 484 kts 111°
2026-04-22 18:01 6.51575 87.78193 36868 ft 485 kts 112°
2026-04-22 18:02 6.49167 87.84567 36867 ft 485 kts 111°
2026-04-22 18:02 6.46775 87.90897 36868 ft 486 kts 111°
2026-04-22 18:03 6.44354 87.97233 36860 ft 485 kts 115°
2026-04-22 18:03 6.40807 88.02953 36869 ft 482 kts 130°
2026-04-22 18:04 6.36521 88.08108 36869 ft 483 kts 130°
2026-04-22 18:04 6.32178 88.13290 36867 ft 482 kts 131°
2026-04-22 18:05 6.27818 88.18489 36865 ft 483 kts 130°
2026-04-22 18:05 6.23484 88.23653 36868 ft 483 kts 131°
2026-04-22 18:06 6.19136 88.28832 36864 ft 482 kts 131°
2026-04-22 18:06 6.14799 88.33995 36867 ft 483 kts 131°
2026-04-22 18:07 6.10454 88.39166 36867 ft 483 kts 130°
2026-04-22 18:07 6.06105 88.44341 36866 ft 484 kts 130°
2026-04-22 18:08 6.01773 88.49494 36853 ft 484 kts 130°
2026-04-22 18:08 5.97407 88.54686 36848 ft 483 kts 130°
2026-04-22 18:09 5.93070 88.59841 36848 ft 484 kts 130°
2026-04-22 18:09 5.88717 88.65015 36851 ft 484 kts 130°
2026-04-22 18:10 5.84355 88.70199 36849 ft 484 kts 130°
2026-04-22 18:10 5.80014 88.75356 36848 ft 483 kts 130°
2026-04-22 18:11 5.75642 88.80548 36847 ft 485 kts 130°
2026-04-22 18:11 5.71309 88.85692 36848 ft 483 kts 130°
2026-04-22 18:12 5.66977 88.90834 36846 ft 483 kts 130°
2026-04-22 18:12 5.63325 88.95167 36849 ft 485 kts 130°
2026-04-22 18:13 5.58226 89.01217 36852 ft 486 kts 130°
2026-04-22 18:13 5.53885 89.06366 36857 ft 485 kts 130°
2026-04-22 18:14 5.49517 89.11544 36859 ft 485 kts 130°
2026-04-22 18:14 5.45144 89.16729 36866 ft 485 kts 130°
2026-04-22 18:15 5.40761 89.21923 36865 ft 485 kts 130°
2026-04-22 18:15 5.36400 89.27091 36867 ft 485 kts 130°
2026-04-22 18:16 5.31991 89.32313 36869 ft 486 kts 130°
2026-04-22 18:16 5.27604 89.37508 36867 ft 486 kts 130°
2026-04-22 18:17 5.23227 89.42691 36867 ft 486 kts 130°
2026-04-22 18:17 5.18863 89.47858 36868 ft 485 kts 130°
2026-04-22 18:18 5.14470 89.53057 36869 ft 485 kts 130°
2026-04-22 18:18 5.10080 89.58250 36867 ft 485 kts 130°
2026-04-22 18:19 5.05710 89.63419 36868 ft 486 kts 130°
2026-04-22 18:19 5.01330 89.68599 36865 ft 485 kts 130°
2026-04-22 18:20 4.96922 89.73811 36853 ft 486 kts 130°
2026-04-22 18:20 4.92542 89.78989 36844 ft 484 kts 130°
2026-04-22 18:21 4.88165 89.84162 36847 ft 485 kts 130°
2026-04-22 18:21 4.83798 89.89322 36849 ft 485 kts 130°
2026-04-22 18:22 4.79417 89.94498 36847 ft 485 kts 130°
2026-04-22 18:22 4.75039 89.99668 36847 ft 484 kts 130°
2026-04-22 18:23 4.70686 90.04809 36846 ft 483 kts 130°
2026-04-22 18:23 4.66349 90.09929 36846 ft 482 kts 130°
2026-04-22 18:24 4.59836 90.17615 36846 ft 481 kts 130°
2026-04-22 18:25 4.53343 90.25276 36847 ft 481 kts 130°
2026-04-22 18:25 4.49009 90.30389 36845 ft 480 kts 130°
2026-04-22 18:26 4.42654 90.38181 36844 ft 479 kts 122°
2026-04-22 18:26 4.39920 90.44258 36841 ft 480 kts 105°
2026-04-22 18:27 4.38268 90.50729 36846 ft 480 kts 104°
2026-04-22 18:27 4.36658 90.57188 36845 ft 479 kts 104°
2026-04-22 18:28 4.35039 90.63671 36845 ft 479 kts 103°
2026-04-22 18:28 4.33420 90.70146 36849 ft 479 kts 103°
2026-04-22 18:29 4.31797 90.76634 36851 ft 480 kts 103°
2026-04-22 18:29 4.30173 90.83121 36850 ft 480 kts 103°
2026-04-22 18:30 4.27740 90.92834 36852 ft 479 kts 103°
2026-04-22 18:31 4.26119 90.99305 36862 ft 480 kts 103°
2026-04-22 18:31 4.24489 91.05804 36864 ft 480 kts 103°
2026-04-22 18:32 4.22860 91.12301 36853 ft 480 kts 103°
2026-04-22 18:32 4.21225 91.18816 36846 ft 480 kts 103°
2026-04-22 18:33 4.19597 91.25302 36846 ft 480 kts 103°
2026-04-22 18:33 4.17976 91.31759 36846 ft 480 kts 103°
2026-04-22 18:34 4.16341 91.38269 36844 ft 479 kts 103°
2026-04-22 18:34 4.14721 91.44717 36847 ft 479 kts 103°
2026-04-22 18:35 4.13090 91.51205 36845 ft 480 kts 103°
2026-04-22 18:35 4.11463 91.57674 36846 ft 480 kts 103°
2026-04-22 18:36 4.09824 91.64191 36847 ft 480 kts 103°
2026-04-22 18:36 4.08189 91.70687 36847 ft 480 kts 103°
2026-04-22 18:37 4.06567 91.77132 36849 ft 479 kts 103°
2026-04-22 18:37 4.05213 91.82509 36849 ft 479 kts 103°
2026-04-22 18:38 4.03303 91.90089 36850 ft 479 kts 103°
2026-04-22 18:38 4.01667 91.96584 36845 ft 480 kts 103°
2026-04-22 18:39 3.99406 92.02824 36854 ft 481 kts 115°
2026-04-22 18:39 3.97926 92.05839 36847 ft 481 kts 115°
2026-04-22 18:39 3.94950 92.11854 36846 ft 480 kts 115°
2026-04-22 18:40 3.91995 92.17826 36846 ft 480 kts 115°
2026-04-22 18:40 3.89034 92.23809 36844 ft 480 kts 115°
2026-04-22 18:41 3.86077 92.29785 36846 ft 479 kts 115°
2026-04-22 18:41 3.83111 92.35780 36846 ft 479 kts 115°
2026-04-22 18:42 3.80154 92.41754 36845 ft 479 kts 115°
2026-04-22 18:42 3.77209 92.47705 36846 ft 479 kts 115°
2026-04-22 18:43 3.74255 92.53670 36845 ft 479 kts 115°
2026-04-22 18:43 3.71291 92.59656 36836 ft 478 kts 115°
2026-04-22 18:44 3.68340 92.65614 36826 ft 478 kts 115°
2026-04-22 18:44 3.65402 92.71542 36828 ft 477 kts 115°
2026-04-22 18:45 3.62443 92.77515 36828 ft 476 kts 115°
2026-04-22 18:45 3.59501 92.83451 36829 ft 478 kts 115°
2026-04-22 18:46 3.56541 92.89421 36828 ft 479 kts 115°
2026-04-22 18:46 3.53592 92.95369 36827 ft 478 kts 115°
2026-04-22 18:47 3.50635 93.01332 36828 ft 477 kts 115°
2026-04-22 18:47 3.47698 93.07255 36837 ft 477 kts 115°
2026-04-22 18:48 3.44745 93.13207 36840 ft 477 kts 115°
2026-04-22 18:48 3.41799 93.19143 36841 ft 477 kts 115°
2026-04-22 18:49 3.38856 93.25073 36842 ft 477 kts 115°
2026-04-22 18:49 3.35917 93.30994 36841 ft 477 kts 115°
2026-04-22 18:50 3.32955 93.36961 36843 ft 477 kts 115°
2026-04-22 18:50 3.30014 93.42884 36843 ft 477 kts 115°
2026-04-22 18:51 3.27057 93.48837 36842 ft 476 kts 115°
2026-04-22 18:51 3.24124 93.54744 36844 ft 476 kts 115°
2026-04-22 18:52 3.21165 93.60699 36843 ft 476 kts 115°
2026-04-22 18:52 3.18223 93.66620 36846 ft 477 kts 115°
2026-04-22 18:53 3.15271 93.72560 36852 ft 477 kts 115°
2026-04-22 18:53 3.12313 93.78510 36854 ft 476 kts 115°
2026-04-22 18:54 3.09381 93.84407 36851 ft 476 kts 115°
2026-04-22 18:54 3.06425 93.90352 36849 ft 475 kts 115°
2026-04-22 18:55 3.03488 93.96259 36849 ft 475 kts 115°
2026-04-22 18:55 3.00546 94.02173 36837 ft 475 kts 115°
2026-04-22 18:56 2.97601 94.08091 36829 ft 476 kts 115°
2026-04-22 18:56 2.94648 94.14028 36827 ft 476 kts 115°
2026-04-22 18:57 2.91720 94.19911 36826 ft 474 kts 115°
2026-04-22 18:57 2.88772 94.25834 36825 ft 475 kts 115°
2026-04-22 18:58 2.85841 94.31722 36824 ft 475 kts 115°
2026-04-22 18:58 2.82897 94.37636 36824 ft 474 kts 115°
2026-04-22 18:59 2.79957 94.43540 36824 ft 475 kts 115°
2026-04-22 18:59 2.77010 94.49456 36822 ft 475 kts 115°
2026-04-22 19:00 2.74087 94.55325 36823 ft 474 kts 115°
2026-04-22 19:00 2.71136 94.61249 36824 ft 474 kts 115°
2026-04-22 19:01 2.68191 94.67159 36828 ft 474 kts 115°
2026-04-22 19:01 2.65252 94.73057 36828 ft 474 kts 115°
2026-04-22 19:02 2.62312 94.78956 36828 ft 475 kts 115°
2026-04-22 19:02 2.59368 94.84862 36827 ft 474 kts 115°
2026-04-22 19:03 2.56435 94.90746 36830 ft 475 kts 115°
2026-04-22 19:03 2.53491 94.96650 36831 ft 474 kts 115°
2026-04-22 19:04 2.50560 95.02527 36833 ft 475 kts 115°
2026-04-22 19:04 2.47617 95.08428 36832 ft 474 kts 115°
2026-04-22 19:05 2.44673 95.14331 36834 ft 474 kts 115°
2026-04-22 19:05 2.41730 95.20230 36835 ft 474 kts 115°
2026-04-22 19:06 2.38787 95.26128 36840 ft 475 kts 115°
2026-04-22 19:07 2.34374 95.34972 36843 ft 475 kts 115°
2026-04-22 19:07 2.31424 95.40884 36844 ft 476 kts 115°
2026-04-22 19:08 2.28474 95.46792 36836 ft 474 kts 115°
2026-04-22 19:08 2.25539 95.52672 36834 ft 475 kts 115°
2026-04-22 19:09 2.22587 95.58585 36827 ft 475 kts 115°
2026-04-22 19:09 2.20143 95.63479 36822 ft 474 kts 115°
2026-04-22 19:10 2.16675 95.70423 36828 ft 475 kts 115°
2026-04-22 19:10 2.13726 95.76327 36830 ft 475 kts 115°
2026-04-22 19:11 2.10786 95.82212 36828 ft 475 kts 115°
2026-04-22 19:11 2.07835 95.88121 36828 ft 474 kts 115°
2026-04-22 19:12 2.04887 95.94022 36826 ft 474 kts 115°
2026-04-22 19:12 2.01941 95.99915 36830 ft 475 kts 115°
2026-04-22 19:13 1.98997 96.05808 36828 ft 475 kts 115°
2026-04-22 19:13 1.96057 96.11689 36827 ft 474 kts 115°
2026-04-22 19:14 1.93114 96.17578 36826 ft 474 kts 115°
2026-04-22 19:14 1.90171 96.23466 36825 ft 475 kts 115°
2026-04-22 19:15 1.87701 96.28405 36824 ft 474 kts 115°
2026-04-22 19:15 1.84252 96.35304 36823 ft 476 kts 115°
2026-04-22 19:16 1.81304 96.41200 36823 ft 475 kts 115°
2026-04-22 19:16 1.78348 96.47111 36824 ft 475 kts 115°
2026-04-22 19:17 1.75403 96.52998 36823 ft 474 kts 115°
2026-04-22 19:17 1.72438 96.58926 36822 ft 474 kts 115°
2026-04-22 19:18 1.69494 96.64811 36823 ft 474 kts 115°
2026-04-22 19:18 1.66537 96.70721 36827 ft 474 kts 115°
2026-04-22 19:19 1.63591 96.76611 36828 ft 476 kts 115°
2026-04-22 19:19 1.60648 96.82492 36826 ft 475 kts 115°
2026-04-22 19:20 1.57686 96.88412 36825 ft 475 kts 115°
2026-04-22 19:20 1.54719 96.94339 36826 ft 475 kts 115°
2026-04-22 19:21 1.51768 97.00236 36827 ft 475 kts 115°
2026-04-22 19:21 1.48817 97.06132 36831 ft 476 kts 115°
2026-04-22 19:22 1.45869 97.12022 36843 ft 475 kts 115°
2026-04-22 19:22 1.42900 97.17952 36843 ft 476 kts 115°
2026-04-22 19:23 1.39941 97.23862 36834 ft 476 kts 115°
2026-04-22 19:23 1.36972 97.29792 36835 ft 475 kts 115°
2026-04-22 19:24 1.34012 97.35703 36839 ft 476 kts 115°
2026-04-22 19:24 1.31055 97.41608 36849 ft 476 kts 115°
2026-04-22 19:25 1.28111 97.47486 36858 ft 475 kts 116°
2026-04-22 19:25 1.25149 97.53400 36864 ft 475 kts 116°
2026-04-22 19:26 1.22200 97.59288 36860 ft 476 kts 115°
2026-04-22 19:26 1.19237 97.65202 36850 ft 476 kts 116°
2026-04-22 19:27 1.16278 97.71110 36843 ft 475 kts 115°
2026-04-22 19:27 1.13652 97.77116 36836 ft 474 kts 112°
2026-04-22 19:28 1.11067 97.83196 36835 ft 474 kts 112°
2026-04-22 19:28 1.08467 97.89275 36832 ft 474 kts 112°
2026-04-22 19:29 1.05870 97.95322 36831 ft 475 kts 112°
2026-04-22 19:29 1.03264 98.01382 36829 ft 474 kts 112°
2026-04-22 19:30 1.01090 98.06431 36825 ft 473 kts 112°
2026-04-22 19:30 0.98057 98.13472 36831 ft 474 kts 112°
2026-04-22 19:31 0.95465 98.19489 36840 ft 474 kts 112°
2026-04-22 19:31 0.92862 98.25529 36844 ft 474 kts 112°
2026-04-22 19:32 0.90246 98.31598 36844 ft 475 kts 112°
2026-04-22 19:32 0.87621 98.37688 36846 ft 476 kts 112°
2026-04-22 19:33 0.85015 98.43733 36843 ft 475 kts 112°
2026-04-22 19:33 0.82404 98.49790 36842 ft 475 kts 112°
2026-04-22 19:34 0.79798 98.55833 36842 ft 476 kts 112°
2026-04-22 19:34 0.77182 98.61900 36843 ft 477 kts 112°
2026-04-22 19:35 0.74559 98.67986 36845 ft 477 kts 112°
2026-04-22 19:35 0.72360 98.73085 36847 ft 479 kts 112°
2026-04-22 19:36 0.69291 98.80201 36847 ft 477 kts 112°
2026-04-22 19:36 0.66656 98.86313 36846 ft 478 kts 112°
2026-04-22 19:37 0.64020 98.92425 36847 ft 478 kts 112°
2026-04-22 19:37 0.61378 98.98550 36847 ft 480 kts 112°
2026-04-22 19:38 0.58752 99.04639 36854 ft 480 kts 112°
2026-04-22 19:38 0.56103 99.10781 36864 ft 480 kts 112°
2026-04-22 19:39 0.53471 99.16884 36866 ft 480 kts 112°
2026-04-22 19:39 0.50832 99.23002 36859 ft 478 kts 112°
2026-04-22 19:40 0.48196 99.29113 36850 ft 478 kts 112°
2026-04-22 19:40 0.45564 99.35216 36860 ft 477 kts 112°
2026-04-22 19:41 0.42927 99.41328 36870 ft 478 kts 112°
2026-04-22 19:41 0.40304 99.47407 36872 ft 478 kts 112°
2026-04-22 19:42 0.37682 99.53485 36879 ft 478 kts 112°
2026-04-22 19:42 0.35051 99.59586 36894 ft 477 kts 112°
2026-04-22 19:43 0.31103 99.68735 36902 ft 477 kts 112°
2026-04-22 19:43 0.28467 99.74846 36902 ft 476 kts 112°
2026-04-22 19:44 0.25843 99.80928 36894 ft 477 kts 112°
2026-04-22 19:44 0.23214 99.87022 36911 ft 477 kts 113°
2026-04-22 19:45 0.20608 99.93063 36933 ft 477 kts 113°
2026-04-22 19:45 0.17983 99.99146 36950 ft 475 kts 113°
2026-04-22 19:46 0.15363 100.05221 36949 ft 476 kts 113°
2026-04-22 19:46 0.12744 100.11291 36938 ft 475 kts 113°
2026-04-22 19:47 0.10109 100.17396 36940 ft 475 kts 113°
2026-04-22 19:47 0.07494 100.23457 36934 ft 476 kts 113°
2026-04-22 19:48 0.04875 100.29528 36934 ft 477 kts 113°
2026-04-22 19:48 0.02247 100.35619 36925 ft 476 kts 113°
2026-04-22 19:49 -0.00371 100.41687 36914 ft 476 kts 113°
2026-04-22 19:49 -0.02998 100.47776 36912 ft 477 kts 113°
2026-04-22 19:50 -0.05614 100.53838 36915 ft 476 kts 113°
2026-04-22 19:50 -0.08243 100.59933 36926 ft 477 kts 113°
2026-04-22 19:51 -0.10870 100.66021 36937 ft 478 kts 112°
2026-04-22 19:51 -0.13499 100.72114 36947 ft 477 kts 112°
2026-04-22 19:52 -0.16125 100.78200 36938 ft 476 kts 112°
2026-04-22 19:52 -0.18754 100.84293 36922 ft 477 kts 113°
2026-04-22 19:53 -0.21370 100.90359 36909 ft 476 kts 113°
2026-04-22 19:53 -0.23999 100.96451 36883 ft 477 kts 113°
2026-04-22 19:54 -0.26610 101.02503 36876 ft 477 kts 112°
2026-04-22 19:54 -0.29234 101.08585 36876 ft 476 kts 112°
2026-04-22 19:55 -0.31864 101.14682 36877 ft 476 kts 112°
2026-04-22 19:55 -0.34489 101.20767 36883 ft 476 kts 112°
2026-04-22 19:56 -0.37113 101.26850 36876 ft 476 kts 112°
2026-04-22 19:56 -0.39726 101.32907 36862 ft 475 kts 112°
2026-04-22 19:57 -0.42347 101.38983 36855 ft 475 kts 112°
2026-04-22 19:57 -0.44966 101.45055 36860 ft 475 kts 112°
2026-04-22 19:58 -0.47585 101.51125 36861 ft 475 kts 112°
2026-04-22 19:58 -0.50185 101.57153 36855 ft 475 kts 112°
2026-04-22 20:00 -0.59332 101.78360 36851 ft 474 kts 113°
2026-04-22 20:01 -0.61955 101.84442 36839 ft 474 kts 112°
2026-04-22 20:01 -0.64554 101.90468 36843 ft 473 kts 113°
2026-04-22 20:02 -0.67153 101.96496 36837 ft 473 kts 112°
2026-04-22 20:02 -0.69771 102.02567 36838 ft 473 kts 112°
2026-04-22 20:03 -0.72365 102.08582 36837 ft 474 kts 112°
2026-04-22 20:03 -0.74987 102.14662 36835 ft 473 kts 112°
2026-04-22 20:04 -0.77585 102.20688 36836 ft 474 kts 112°
2026-04-22 20:04 -0.80195 102.26741 36837 ft 474 kts 112°
2026-04-22 20:05 -0.82801 102.32786 36851 ft 474 kts 112°
2026-04-22 20:05 -0.85419 102.38858 36852 ft 475 kts 112°
2026-04-22 20:06 -0.88015 102.44879 36854 ft 475 kts 112°
2026-04-22 20:06 -0.90633 102.50953 36852 ft 474 kts 112°
2026-04-22 20:07 -0.93245 102.57012 36847 ft 475 kts 112°
2026-04-22 20:07 -0.95858 102.63075 36846 ft 475 kts 112°
2026-04-22 20:08 -0.98480 102.69158 36851 ft 475 kts 112°
2026-04-22 20:08 -1.01095 102.75227 36848 ft 475 kts 112°
2026-04-22 20:09 -1.03705 102.81281 36851 ft 474 kts 112°
2026-04-22 20:09 -1.06266 102.87381 36837 ft 475 kts 108°
2026-04-22 20:10 -1.07498 102.93855 36842 ft 474 kts 94°
2026-04-22 20:10 -1.07950 103.00406 36839 ft 475 kts 94°
2026-04-22 20:11 -1.08394 103.07029 36835 ft 476 kts 94°
2026-04-22 20:11 -1.08833 103.13593 36835 ft 477 kts 94°
2026-04-22 20:12 -1.09276 103.20221 36835 ft 476 kts 94°
2026-04-22 20:12 -1.09616 103.25325 36833 ft 475 kts 94°
2026-04-22 20:13 -1.10130 103.33028 36831 ft 476 kts 94°
2026-04-22 20:13 -1.10570 103.39635 36830 ft 476 kts 94°
2026-04-22 20:14 -1.11013 103.46281 36829 ft 476 kts 94°
2026-04-22 20:14 -1.11453 103.52889 36824 ft 476 kts 94°
2026-04-22 20:15 -1.11893 103.59502 36819 ft 477 kts 94°
2026-04-22 20:15 -1.12333 103.66116 36818 ft 477 kts 94°
2026-04-22 20:16 -1.12773 103.72736 36817 ft 478 kts 94°
2026-04-22 20:16 -1.13214 103.79359 36816 ft 478 kts 94°
2026-04-22 20:17 -1.13656 103.86010 36811 ft 479 kts 94°
2026-04-22 20:17 -1.14094 103.92600 36816 ft 479 kts 94°
2026-04-22 20:18 -1.14536 103.99262 36810 ft 478 kts 94°
2026-04-22 20:18 -1.14979 104.05924 36810 ft 479 kts 94°
2026-04-22 20:19 -1.15419 104.12553 36806 ft 479 kts 94°
2026-04-22 20:19 -1.15860 104.19211 36807 ft 480 kts 94°
2026-04-22 20:20 -1.16302 104.25868 36806 ft 478 kts 94°
2026-04-22 20:20 -1.16740 104.32471 36809 ft 480 kts 94°
2026-04-22 20:21 -1.17183 104.39153 36808 ft 480 kts 94°
2026-04-22 20:21 -1.17624 104.45805 36814 ft 481 kts 94°
2026-04-22 20:22 -1.18064 104.52452 36825 ft 479 kts 94°
2026-04-22 20:22 -1.18504 104.59107 36825 ft 480 kts 94°
2026-04-22 20:23 -1.18943 104.65735 36827 ft 480 kts 94°
2026-04-22 20:23 -1.19382 104.72369 36826 ft 479 kts 94°
2026-04-22 20:24 -1.19820 104.78986 36825 ft 479 kts 94°
2026-04-22 20:24 -1.20262 104.85672 36822 ft 481 kts 94°
2026-04-22 20:25 -1.20700 104.92302 36813 ft 482 kts 94°
2026-04-22 20:25 -1.21142 104.98992 36813 ft 482 kts 94°
2026-04-22 20:26 -1.21580 105.05621 36810 ft 480 kts 94°
2026-04-22 20:26 -1.22020 105.12295 36809 ft 480 kts 94°
2026-04-22 20:27 -1.22457 105.18919 36809 ft 479 kts 94°
2026-04-22 20:27 -1.22896 105.25562 36808 ft 481 kts 94°
2026-04-22 20:28 -1.23335 105.32227 36810 ft 482 kts 94°
2026-04-22 20:28 -1.23777 105.38923 36810 ft 481 kts 94°
2026-04-22 20:29 -1.24215 105.45583 36808 ft 482 kts 94°
2026-04-22 20:29 -1.24655 105.52252 36809 ft 482 kts 94°
2026-04-22 20:30 -1.25095 105.58940 36808 ft 483 kts 94°
2026-04-22 20:30 -1.25535 105.65621 36804 ft 482 kts 94°
2026-04-22 20:31 -1.25974 105.72293 36805 ft 483 kts 94°
2026-04-22 20:31 -1.26414 105.78989 36807 ft 483 kts 94°
2026-04-22 20:32 -1.26854 105.85675 36806 ft 484 kts 94°
2026-04-22 20:32 -1.27295 105.92393 36804 ft 483 kts 94°
2026-04-22 20:33 -1.27736 105.99105 36806 ft 485 kts 94°
2026-04-22 20:33 -1.28176 106.05805 36806 ft 484 kts 94°
2026-04-22 20:34 -1.28615 106.12501 36806 ft 483 kts 94°
2026-04-22 20:34 -1.29054 106.19194 36812 ft 483 kts 94°
2026-04-22 20:35 -1.29492 106.25862 36818 ft 483 kts 94°
2026-04-22 20:35 -1.29932 106.32586 36825 ft 483 kts 94°
2026-04-22 20:36 -1.30370 106.39264 36825 ft 482 kts 94°
2026-04-22 20:36 -1.30806 106.45924 36824 ft 483 kts 94°
2026-04-22 20:37 -1.31245 106.52633 36827 ft 483 kts 94°
2026-04-22 20:37 -1.31682 106.59302 36825 ft 483 kts 94°
2026-04-22 20:38 -1.32120 106.66003 36824 ft 483 kts 94°
2026-04-22 20:38 -1.32555 106.72657 36821 ft 482 kts 94°
2026-04-22 20:39 -1.32991 106.79322 36821 ft 482 kts 94°
2026-04-22 20:39 -1.33427 106.85987 36815 ft 482 kts 94°
2026-04-22 20:40 -1.33864 106.92687 36809 ft 482 kts 94°
2026-04-22 20:40 -1.34300 106.99364 36808 ft 483 kts 94°
2026-04-22 20:41 -1.34733 107.05996 36804 ft 482 kts 94°
2026-04-22 20:41 -1.35170 107.12694 36810 ft 482 kts 94°
2026-04-22 20:42 -1.35603 107.19338 36809 ft 482 kts 94°
2026-04-22 20:42 -1.36037 107.26006 36810 ft 482 kts 94°
2026-04-22 20:43 -1.36474 107.32706 36812 ft 481 kts 94°
2026-04-22 20:43 -1.37321 107.39274 36813 ft 481 kts 103°
2026-04-22 20:44 -1.38906 107.45800 36810 ft 481 kts 104°
2026-04-22 20:44 -1.40498 107.52296 36809 ft 482 kts 104°
2026-04-22 20:45 -1.42083 107.58772 36809 ft 481 kts 104°
2026-04-22 20:45 -1.43671 107.65264 36811 ft 480 kts 104°
2026-04-22 20:46 -1.46039 107.74953 36807 ft 480 kts 104°
2026-04-22 20:46 -1.47616 107.81406 36804 ft 481 kts 104°
2026-04-22 20:47 -1.49196 107.87877 36807 ft 481 kts 104°
2026-04-22 20:47 -1.50779 107.94357 36805 ft 481 kts 104°
2026-04-22 20:48 -1.52363 108.00844 36806 ft 481 kts 104°
2026-04-22 20:48 -1.53950 108.07343 36806 ft 480 kts 104°
2026-04-22 20:49 -1.55525 108.13795 36810 ft 480 kts 104°
2026-04-22 20:49 -1.57096 108.20230 36818 ft 478 kts 104°
2026-04-22 20:50 -1.58678 108.26710 36826 ft 480 kts 104°
2026-04-22 20:50 -1.60252 108.33162 36826 ft 480 kts 104°
2026-04-22 20:51 -1.61826 108.39612 36827 ft 480 kts 103°
2026-04-22 20:51 -1.63410 108.46104 36824 ft 480 kts 103°
2026-04-22 20:52 -1.64988 108.52576 36825 ft 479 kts 103°
2026-04-22 20:52 -1.66561 108.59023 36826 ft 478 kts 103°
2026-04-22 20:53 -1.68125 108.65440 36825 ft 478 kts 104°
2026-04-22 20:53 -1.69705 108.71920 36826 ft 480 kts 103°
2026-04-22 20:54 -1.71290 108.78423 36830 ft 480 kts 103°
2026-04-22 20:54 -1.72864 108.84878 36827 ft 480 kts 103°
2026-04-22 20:55 -1.74432 108.91313 36827 ft 480 kts 103°
2026-04-22 20:55 -1.76013 108.97801 36828 ft 479 kts 103°
2026-04-22 20:56 -1.77582 109.04243 36831 ft 480 kts 103°
2026-04-22 20:56 -1.79155 109.10701 36825 ft 478 kts 103°
2026-04-22 20:57 -1.80728 109.17158 36822 ft 479 kts 103°
2026-04-22 20:57 -1.82304 109.23631 36830 ft 479 kts 103°
2026-04-22 20:58 -1.83881 109.30108 36824 ft 479 kts 103°
2026-04-22 20:58 -1.85454 109.36571 36829 ft 479 kts 103°
2026-04-22 20:59 -1.87018 109.42996 36827 ft 478 kts 103°
2026-04-22 20:59 -1.88590 109.49458 36827 ft 478 kts 103°
2026-04-22 21:00 -1.90158 109.55901 36824 ft 476 kts 103°
2026-04-22 21:00 -1.91718 109.62314 36819 ft 477 kts 103°
2026-04-22 21:01 -1.93291 109.68784 36823 ft 477 kts 103°
2026-04-22 21:01 -1.94860 109.75234 36822 ft 478 kts 103°
2026-04-22 21:02 -1.96424 109.81669 36828 ft 477 kts 103°
2026-04-22 21:02 -1.97981 109.88075 36840 ft 477 kts 103°
2026-04-22 21:03 -1.99551 109.94532 36843 ft 476 kts 104°
2026-04-22 21:03 -2.01105 110.00929 36844 ft 476 kts 104°
2026-04-22 21:04 -2.02667 110.07356 36846 ft 476 kts 104°
2026-04-22 21:04 -2.04226 110.13773 36845 ft 476 kts 104°
2026-04-22 21:05 -2.05796 110.20239 36846 ft 476 kts 103°
2026-04-22 21:05 -2.07348 110.26630 36848 ft 476 kts 103°
2026-04-22 21:06 -2.08907 110.33051 36848 ft 474 kts 103°
2026-04-22 21:06 -2.10464 110.39465 36846 ft 475 kts 103°
2026-04-22 21:07 -2.12017 110.45866 36843 ft 473 kts 103°
2026-04-22 21:07 -2.13576 110.52291 36845 ft 474 kts 103°
2026-04-22 21:08 -2.15124 110.58675 36845 ft 475 kts 103°
2026-04-22 21:08 -2.16687 110.65115 36847 ft 474 kts 103°
2026-04-22 21:09 -2.18247 110.71551 36853 ft 475 kts 103°
2026-04-22 21:09 -2.19797 110.77944 36854 ft 475 kts 103°
2026-04-22 21:10 -2.21355 110.84370 36853 ft 474 kts 103°
2026-04-22 21:10 -2.22909 110.90781 36853 ft 475 kts 103°
2026-04-22 21:11 -2.24473 110.97205 36853 ft 475 kts 104°
2026-04-22 21:11 -2.26243 111.03536 36852 ft 474 kts 105°
2026-04-22 21:12 -2.28035 111.09891 36860 ft 474 kts 105°
2026-04-22 21:12 -2.29825 111.16270 36866 ft 474 kts 105°
2026-04-22 21:13 -2.31603 111.22622 36871 ft 474 kts 105°
2026-04-22 21:13 -2.33379 111.28973 36871 ft 474 kts 105°
2026-04-22 21:14 -2.35152 111.35323 36864 ft 475 kts 105°
2026-04-22 21:14 -2.36926 111.41679 36858 ft 474 kts 105°
2026-04-22 21:15 -2.38703 111.48046 36853 ft 475 kts 105°
2026-04-22 21:15 -2.40471 111.54385 36849 ft 474 kts 105°
2026-04-22 21:16 -2.42256 111.60784 36848 ft 474 kts 105°
2026-04-22 21:16 -2.44035 111.67163 36851 ft 474 kts 105°
2026-04-22 21:17 -2.45806 111.73518 36852 ft 475 kts 105°
2026-04-22 21:17 -2.47578 111.79874 36853 ft 475 kts 105°
2026-04-22 21:18 -2.49343 111.86210 36862 ft 475 kts 105°
2026-04-22 21:18 -2.51126 111.92609 36878 ft 476 kts 105°
2026-04-22 21:19 -2.52890 111.98942 36886 ft 475 kts 105°
2026-04-22 21:19 -2.54671 112.05336 36885 ft 475 kts 105°
2026-04-22 21:20 -2.56436 112.11675 36876 ft 474 kts 105°
2026-04-22 21:20 -2.58209 112.18044 36865 ft 476 kts 105°
2026-04-22 21:21 -2.59981 112.24414 36851 ft 477 kts 105°
2026-04-22 21:21 -2.61755 112.30788 36846 ft 476 kts 105°
2026-04-22 21:22 -2.63532 112.37176 36844 ft 477 kts 105°
2026-04-22 21:22 -2.65313 112.43577 36846 ft 475 kts 105°
2026-04-22 21:23 -2.67080 112.49934 36851 ft 476 kts 105°
2026-04-22 21:23 -2.68860 112.56335 36853 ft 477 kts 105°
2026-04-22 21:24 -2.70638 112.62734 36853 ft 477 kts 105°
2026-04-22 21:24 -2.72411 112.69114 36855 ft 478 kts 105°
2026-04-22 21:25 -2.74202 112.75558 36853 ft 478 kts 105°
2026-04-22 21:25 -2.75983 112.81971 36852 ft 477 kts 104°
2026-04-22 21:26 -2.77751 112.88339 36851 ft 477 kts 105°
2026-04-22 21:26 -2.79536 112.94769 36850 ft 478 kts 105°
2026-04-22 21:27 -2.81312 113.01166 36849 ft 478 kts 105°
2026-04-22 21:27 -2.83093 113.07584 36848 ft 478 kts 104°
2026-04-22 21:28 -2.84879 113.14020 36848 ft 479 kts 104°
2026-04-22 21:28 -2.86656 113.20425 36848 ft 477 kts 104°
2026-04-22 21:29 -2.88440 113.26857 36848 ft 477 kts 105°
2026-04-22 21:29 -2.90204 113.33220 36849 ft 478 kts 105°
2026-04-22 21:30 -2.91984 113.39642 36849 ft 479 kts 105°
2026-04-22 21:30 -2.93770 113.46088 36850 ft 479 kts 105°
2026-04-22 21:31 -2.95550 113.52512 36849 ft 478 kts 105°
2026-04-22 21:31 -2.97316 113.58888 36849 ft 479 kts 105°
2026-04-22 21:32 -2.99103 113.65338 36851 ft 478 kts 105°
2026-04-22 21:32 -3.00875 113.71741 36860 ft 478 kts 105°
2026-04-22 21:33 -3.02655 113.78172 36864 ft 478 kts 105°
2026-04-22 21:33 -3.04428 113.84579 36865 ft 479 kts 105°
2026-04-22 21:34 -3.06204 113.90997 36868 ft 478 kts 105°
2026-04-22 21:34 -3.07978 113.97409 36867 ft 476 kts 105°
2026-04-22 21:35 -3.09739 114.03778 36868 ft 477 kts 105°
2026-04-22 21:35 -3.11512 114.10192 36862 ft 477 kts 105°
2026-04-22 21:36 -3.13275 114.16573 36861 ft 478 kts 105°
2026-04-22 21:36 -3.15055 114.23013 36864 ft 478 kts 105°
2026-04-22 21:37 -3.16832 114.29449 36857 ft 478 kts 105°
2026-04-22 21:37 -3.18598 114.35841 36849 ft 477 kts 105°
2026-04-22 21:38 -3.20361 114.42228 36842 ft 477 kts 105°
2026-04-22 21:38 -3.22128 114.48631 36841 ft 478 kts 105°
2026-04-22 21:39 -3.23905 114.55069 36843 ft 478 kts 105°
2026-04-22 21:39 -3.25677 114.61492 36843 ft 478 kts 105°
2026-04-22 21:40 -3.27439 114.67879 36848 ft 478 kts 105°
2026-04-22 21:40 -3.29204 114.74282 36850 ft 477 kts 105°
2026-04-22 21:41 -3.30981 114.80727 36853 ft 479 kts 105°
2026-04-22 21:41 -3.32753 114.87156 36852 ft 478 kts 105°
2026-04-22 21:42 -3.34514 114.93550 36854 ft 478 kts 105°
2026-04-22 21:42 -3.36291 114.99998 36856 ft 479 kts 105°
2026-04-22 21:43 -3.38060 115.06426 36859 ft 480 kts 105°
2026-04-22 21:43 -3.39827 115.12846 36862 ft 478 kts 105°
2026-04-22 21:44 -3.41591 115.19254 36871 ft 478 kts 105°
2026-04-22 21:44 -3.43359 115.25678 36879 ft 478 kts 105°
2026-04-22 21:45 -3.45127 115.32109 36880 ft 479 kts 105°
2026-04-22 21:45 -3.46895 115.38537 36876 ft 479 kts 105°
2026-04-22 21:46 -3.48666 115.44981 36875 ft 479 kts 105°
2026-04-22 21:46 -3.50438 115.51427 36868 ft 479 kts 105°
2026-04-22 21:47 -3.52203 115.57853 36866 ft 480 kts 105°
2026-04-22 21:47 -3.53967 115.64274 36866 ft 479 kts 105°
2026-04-22 21:48 -3.55739 115.70728 36868 ft 479 kts 105°
2026-04-22 21:48 -3.57498 115.77135 36866 ft 479 kts 105°
2026-04-22 21:49 -3.59264 115.83571 36862 ft 479 kts 105°
2026-04-22 21:49 -3.61029 115.90003 36858 ft 480 kts 105°
2026-04-22 21:50 -3.62789 115.96420 36859 ft 480 kts 105°
2026-04-22 21:50 -3.64565 116.02901 36865 ft 480 kts 105°
2026-04-22 21:51 -3.66331 116.09343 36864 ft 480 kts 105°
2026-04-22 21:52 -3.68978 116.19004 36857 ft 480 kts 105°
2026-04-22 21:52 -3.70738 116.25429 36855 ft 480 kts 105°
2026-04-22 21:53 -3.72500 116.31863 36851 ft 481 kts 105°
2026-04-22 21:53 -3.74269 116.38326 36853 ft 481 kts 105°
2026-04-22 21:54 -3.76039 116.44797 36852 ft 481 kts 105°
2026-04-22 21:54 -3.77795 116.51215 36849 ft 481 kts 105°
2026-04-22 21:55 -3.79559 116.57667 36848 ft 481 kts 105°
2026-04-22 21:55 -3.81323 116.64118 36847 ft 482 kts 105°
2026-04-22 21:56 -3.83096 116.70606 36848 ft 482 kts 105°
2026-04-22 21:56 -3.84862 116.77071 36848 ft 481 kts 105°
2026-04-22 21:57 -3.86612 116.83478 36848 ft 481 kts 105°
2026-04-22 21:57 -3.88385 116.89969 36848 ft 481 kts 105°
2026-04-22 21:58 -3.90139 116.96397 36848 ft 482 kts 105°
2026-04-22 21:58 -3.91907 117.02876 36844 ft 481 kts 105°
2026-04-22 21:59 -3.93662 117.09311 36846 ft 481 kts 105°
2026-04-22 21:59 -3.95427 117.15782 36847 ft 482 kts 105°
2026-04-22 22:00 -3.97215 117.22248 36840 ft 481 kts 108°
2026-04-22 22:00 -4.00177 117.28206 36843 ft 483 kts 124°
2026-04-22 22:01 -4.04106 117.33682 36847 ft 484 kts 125°
2026-04-22 22:01 -4.08053 117.39134 36849 ft 484 kts 125°
2026-04-22 22:02 -4.12011 117.44605 36852 ft 484 kts 125°
2026-04-22 22:02 -4.15943 117.50043 36852 ft 482 kts 125°
2026-04-22 22:03 -4.19873 117.55481 36853 ft 482 kts 125°
2026-04-22 22:03 -4.23813 117.60934 36858 ft 481 kts 125°
2026-04-22 22:04 -4.27729 117.66355 36866 ft 482 kts 125°
2026-04-22 22:04 -4.31659 117.71797 36867 ft 483 kts 125°
2026-04-22 22:05 -4.35597 117.77251 36868 ft 483 kts 125°
2026-04-22 22:05 -4.39525 117.82694 36867 ft 482 kts 125°
2026-04-22 22:06 -4.43450 117.88131 36867 ft 481 kts 125°
2026-04-22 22:06 -4.47368 117.93561 36867 ft 481 kts 125°
2026-04-22 22:07 -4.51262 117.98959 36862 ft 467 kts 125°
2026-04-22 22:07 -4.53128 118.01545 36859 ft 455 kts 125°
2026-04-22 22:07 -4.55017 118.04165 36624 ft 471 kts 125°
2026-04-22 22:07 -4.56991 118.06903 35860 ft 491 kts 125°
2026-04-22 22:08 -4.58972 118.09650 34937 ft 493 kts 125°
2026-04-22 22:08 -4.60975 118.12428 34022 ft 491 kts 125°
2026-04-22 22:08 -4.62984 118.15215 33118 ft 490 kts 125°
2026-04-22 22:08 -4.64954 118.17948 32201 ft 489 kts 124°
2026-04-22 22:09 -4.66941 118.20704 31306 ft 489 kts 124°
2026-04-22 22:09 -4.68800 118.23516 30643 ft 481 kts 118°
2026-04-22 22:09 -4.70196 118.26524 30145 ft 471 kts 109°
2026-04-22 22:09 -4.71105 118.29637 29546 ft 464 kts 101°
2026-04-22 22:10 -4.71557 118.32817 28867 ft 459 kts 94°
2026-04-22 22:10 -4.71823 118.35987 28272 ft 454 kts 93°
2026-04-22 22:10 -4.72064 118.39085 27710 ft 448 kts 93°
2026-04-22 22:10 -4.72300 118.42218 27134 ft 452 kts 93°
2026-04-22 22:11 -4.72532 118.45391 26522 ft 457 kts 93°
2026-04-22 22:11 -4.72758 118.48515 25899 ft 453 kts 93°
2026-04-22 22:11 -4.72980 118.51640 25290 ft 448 kts 93°
2026-04-22 22:11 -4.73198 118.54726 24702 ft 442 kts 93°
2026-04-22 22:12 -4.73413 118.57788 24106 ft 436 kts 93°
2026-04-22 22:12 -4.73623 118.60796 23517 ft 431 kts 93°
2026-04-22 22:12 -4.73828 118.63746 22950 ft 425 kts 93°
2026-04-22 22:12 -4.74033 118.66710 22362 ft 420 kts 93°
2026-04-22 22:13 -4.74232 118.69589 21806 ft 416 kts 93°
2026-04-22 22:13 -4.74431 118.72481 21226 ft 412 kts 93°
2026-04-22 22:13 -4.74624 118.75290 20646 ft 408 kts 92°
2026-04-22 22:13 -4.74907 118.78121 20052 ft 405 kts 98°
2026-04-22 22:14 -4.75639 118.80810 19461 ft 404 kts 108°
2026-04-22 22:14 -4.76872 118.83363 18843 ft 404 kts 119°
2026-04-22 22:14 -4.78528 118.85609 18232 ft 404 kts 129°
2026-04-22 22:14 -4.80616 118.87531 17855 ft 407 kts 140°
2026-04-22 22:15 -4.83021 118.89033 17515 ft 412 kts 151°
2026-04-22 22:15 -4.85714 118.90073 17213 ft 415 kts 162°
2026-04-22 22:15 -4.88584 118.90587 16938 ft 416 kts 173°
2026-04-22 22:15 -4.91464 118.90720 16675 ft 416 kts 176°
2026-04-22 22:16 -4.94376 118.90781 16408 ft 414 kts 177°
2026-04-22 22:16 -4.97267 118.90822 16141 ft 413 kts 177°
2026-04-22 22:16 -5.00133 118.90849 15873 ft 411 kts 178°
2026-04-22 22:16 -5.03005 118.90869 15607 ft 409 kts 178°
2026-04-22 22:17 -5.05824 118.90883 15346 ft 407 kts 178°
2026-04-22 22:17 -5.08681 118.90894 15081 ft 405 kts 178°
2026-04-22 22:17 -5.11495 118.90900 14893 ft 402 kts 178°
2026-04-22 22:17 -5.14321 118.90910 14864 ft 402 kts 176°
2026-04-22 22:18 -5.17086 118.91220 14863 ft 400 kts 166°
2026-04-22 22:18 -5.19780 118.92044 14864 ft 398 kts 155°
2026-04-22 22:18 -5.22215 118.93333 14866 ft 396 kts 144°
2026-04-22 22:18 -5.24341 118.95040 14865 ft 393 kts 133°
2026-04-22 22:19 -5.26098 118.97098 14861 ft 379 kts 122°
2026-04-22 22:19 -5.27394 118.99343 14860 ft 356 kts 112°
2026-04-22 22:19 -5.28216 119.01588 14863 ft 335 kts 103°
2026-04-22 22:19 -5.28645 119.03812 14861 ft 316 kts 94°
2026-04-22 22:20 -5.28824 119.05943 14862 ft 300 kts 92°
2026-04-22 22:20 -5.29098 119.07996 14869 ft 296 kts 96°
2026-04-22 22:20 -5.29311 119.10046 14867 ft 296 kts 91°
2026-04-22 22:20 -5.29389 119.12111 14869 ft 295 kts 89°
2026-04-22 22:21 -5.29406 119.14163 14869 ft 295 kts 88°
2026-04-22 22:21 -5.29404 119.16228 14872 ft 295 kts 88°
2026-04-22 22:21 -5.29397 119.18277 14874 ft 295 kts 88°
2026-04-22 22:21 -5.29389 119.20345 14877 ft 295 kts 88°
2026-04-22 22:22 -5.29380 119.22434 14875 ft 295 kts 88°
2026-04-22 22:22 -5.29372 119.24504 14877 ft 294 kts 88°
2026-04-22 22:22 -5.29364 119.26556 14880 ft 295 kts 88°
2026-04-22 22:22 -5.29355 119.28619 14881 ft 294 kts 88°
2026-04-22 22:23 -5.29347 119.30671 14880 ft 294 kts 88°
2026-04-22 22:23 -5.29338 119.32719 14882 ft 294 kts 88°
2026-04-22 22:23 -5.29329 119.34780 14887 ft 294 kts 88°
2026-04-22 22:23 -5.29320 119.36826 14890 ft 293 kts 88°
2026-04-22 22:24 -5.29312 119.38894 14893 ft 294 kts 88°
2026-04-22 22:24 -5.29180 119.40941 14883 ft 291 kts 74°
2026-04-22 22:24 -5.28291 119.42746 14885 ft 290 kts 50°
2026-04-22 22:24 -5.26814 119.44089 14890 ft 275 kts 37°
2026-04-22 22:25 -5.25266 119.45113 14886 ft 261 kts 33°
2026-04-22 22:25 -5.23736 119.46029 14886 ft 247 kts 32°
2026-04-22 22:25 -5.22275 119.46879 14893 ft 242 kts 31°
2026-04-22 22:25 -5.20806 119.47728 14896 ft 242 kts 31°
2026-04-22 22:26 -5.19336 119.48576 14887 ft 241 kts 31°
2026-04-22 22:26 -5.17872 119.49421 14904 ft 241 kts 31°
2026-04-22 22:26 -5.16414 119.50262 14893 ft 242 kts 31°
2026-04-22 22:26 -5.14949 119.51105 14893 ft 241 kts 31°
2026-04-22 22:27 -5.13482 119.51951 14893 ft 241 kts 31°
2026-04-22 22:27 -5.12014 119.52797 14893 ft 242 kts 31°
2026-04-22 22:27 -5.10558 119.53636 14893 ft 241 kts 31°
2026-04-22 22:27 -5.09097 119.54479 14894 ft 241 kts 31°
2026-04-22 22:28 -5.07525 119.55122 14874 ft 243 kts 17°
2026-04-22 22:28 -5.05875 119.55510 14867 ft 244 kts 15°
2026-04-22 22:28 -5.04180 119.55892 14864 ft 243 kts 15°
2026-04-22 22:28 -5.02519 119.56267 14861 ft 243 kts 15°
2026-04-22 22:29 -5.00863 119.56640 14858 ft 243 kts 15°
2026-04-22 22:29 -4.99210 119.57012 14855 ft 244 kts 15°
2026-04-22 22:29 -4.97539 119.57388 14842 ft 244 kts 15°
2026-04-22 22:29 -4.95865 119.57765 14826 ft 243 kts 15°
2026-04-22 22:30 -4.94206 119.58139 14818 ft 244 kts 15°
2026-04-22 22:30 -4.92514 119.58520 14813 ft 243 kts 15°
2026-04-22 22:30 -4.90848 119.58895 14807 ft 243 kts 15°
2026-04-22 22:30 -4.89187 119.59269 14802 ft 244 kts 15°
2026-04-22 22:31 -4.87540 119.59640 14806 ft 244 kts 15°
2026-04-22 22:31 -4.85875 119.60014 14810 ft 243 kts 15°
2026-04-22 22:31 -4.84186 119.60395 14805 ft 243 kts 15°
2026-04-22 22:31 -4.82531 119.60768 14800 ft 243 kts 15°
2026-04-22 22:32 -4.80860 119.61144 14795 ft 243 kts 15°
2026-04-22 22:32 -4.79217 119.61513 14793 ft 242 kts 15°
2026-04-22 22:32 -4.77552 119.61888 14788 ft 243 kts 15°
2026-04-22 22:32 -4.75906 119.62259 14794 ft 243 kts 15°
2026-04-22 22:33 -4.74236 119.62635 14790 ft 243 kts 15°
2026-04-22 22:33 -4.72576 119.63009 14789 ft 242 kts 15°
2026-04-22 22:33 -4.70924 119.63361 14788 ft 243 kts 14°
2026-04-22 22:33 -4.69250 119.63693 14788 ft 243 kts 14°
2026-04-22 22:34 -4.67590 119.64024 14792 ft 243 kts 14°
2026-04-22 22:34 -4.65923 119.64360 14794 ft 243 kts 14°
2026-04-22 22:34 -4.64253 119.64697 14794 ft 243 kts 14°
2026-04-22 22:34 -4.62572 119.65037 14796 ft 243 kts 13°
2026-04-22 22:35 -4.60930 119.65369 14802 ft 243 kts 13°
2026-04-22 22:35 -4.59241 119.65440 14785 ft 246 kts 349°
2026-04-22 22:35 -4.57687 119.64703 14743 ft 252 kts 321°
2026-04-22 22:35 -4.56664 119.63254 14689 ft 259 kts 291°
2026-04-22 22:36 -4.56502 119.61457 14619 ft 264 kts 259°
2026-04-22 22:36 -4.57282 119.59811 14540 ft 266 kts 226°
2026-04-22 22:36 -4.58805 119.58796 14453 ft 262 kts 193°
2026-04-22 22:36 -4.60574 119.58704 14368 ft 255 kts 162°
2026-04-22 22:37 -4.62165 119.59423 14308 ft 251 kts 145°
2026-04-22 22:37 -4.63690 119.60346 14294 ft 255 kts 146°
2026-04-22 22:37 -4.65244 119.61237 14294 ft 256 kts 147°
2026-04-22 22:37 -4.66811 119.62104 14299 ft 257 kts 148°
2026-04-22 22:38 -4.68380 119.62955 14303 ft 257 kts 152°
2026-04-22 22:38 -4.70148 119.63356 14276 ft 262 kts 179°
2026-04-22 22:38 -4.71972 119.63147 14263 ft 265 kts 189°
2026-04-22 22:38 -4.73682 119.62486 14234 ft 267 kts 216°
2026-04-22 22:39 -4.74937 119.61110 14186 ft 266 kts 244°
2026-04-22 22:39 -4.75425 119.59376 14128 ft 261 kts 272°
2026-04-22 22:39 -4.75098 119.57606 14071 ft 255 kts 299°
2026-04-22 22:39 -4.74060 119.56194 14010 ft 248 kts 324°
2026-04-22 22:40 -4.72575 119.55389 13958 ft 241 kts 349°
2026-04-22 22:40 -4.70916 119.55273 13909 ft 236 kts 11°
2026-04-22 22:40 -4.69291 119.55572 13896 ft 239 kts 13°
2026-04-22 22:40 -4.67651 119.55911 13897 ft 240 kts 13°
2026-04-22 22:41 -4.65998 119.56248 13900 ft 240 kts 13°
2026-04-22 22:41 -4.64353 119.56582 13904 ft 240 kts 13°
2026-04-22 22:41 -4.62737 119.56981 13901 ft 238 kts 25°
2026-04-22 22:41 -4.61375 119.57894 13877 ft 234 kts 47°
2026-04-22 22:42 -4.60509 119.59249 13851 ft 235 kts 69°
2026-04-22 22:42 -4.60250 119.60866 13821 ft 237 kts 92°
2026-04-22 22:42 -4.60663 119.62464 13787 ft 242 kts 115°
2026-04-22 22:42 -4.61716 119.63804 13662 ft 253 kts 138°
2026-04-22 22:43 -4.63320 119.64629 13417 ft 265 kts 165°
2026-04-22 22:43 -4.65172 119.64628 13173 ft 269 kts 189°
2026-04-22 22:43 -4.66995 119.64210 12938 ft 269 kts 192°
2026-04-22 22:43 -4.68842 119.63787 12697 ft 267 kts 190°
2026-04-22 22:44 -4.70649 119.63406 12464 ft 265 kts 190°
2026-04-22 22:44 -4.72477 119.63008 12224 ft 266 kts 197°
2026-04-22 22:44 -4.74218 119.62365 11990 ft 266 kts 194°
2026-04-22 22:44 -4.76011 119.61935 11761 ft 265 kts 191°
2026-04-22 22:45 -4.77835 119.61543 11522 ft 264 kts 190°
2026-04-22 22:45 -4.79590 119.61059 11282 ft 264 kts 205°
2026-04-22 22:45 -4.81159 119.60113 11016 ft 262 kts 213°
2026-04-22 22:45 -4.82697 119.59077 10736 ft 262 kts 213°
2026-04-22 22:46 -4.84193 119.58064 10460 ft 260 kts 213°
2026-04-22 22:46 -4.85711 119.57033 10217 ft 258 kts 213°
2026-04-22 22:46 -4.87216 119.56010 9952 ft 256 kts 213°
2026-04-22 22:46 -4.88678 119.55016 9690 ft 255 kts 213°
2026-04-22 22:47 -4.90163 119.54005 9406 ft 254 kts 213°
2026-04-22 22:47 -4.91622 119.53012 9142 ft 253 kts 213°
2026-04-22 22:47 -4.93092 119.52015 8886 ft 252 kts 213°
2026-04-22 22:47 -4.94539 119.51036 8633 ft 251 kts 213°
2026-04-22 22:48 -4.96007 119.50042 8359 ft 249 kts 213°
2026-04-22 22:48 -4.97444 119.49070 8125 ft 247 kts 213°
2026-04-22 22:48 -4.98857 119.48113 7873 ft 247 kts 213°
2026-04-22 22:48 -5.00309 119.47176 7642 ft 244 kts 211°
2026-04-22 22:49 -5.01766 119.46288 7360 ft 244 kts 210°
2026-04-22 22:49 -5.03223 119.45405 7108 ft 242 kts 210°
2026-04-22 22:49 -5.04673 119.44528 6848 ft 241 kts 210°
2026-04-22 22:49 -5.06110 119.43662 6595 ft 241 kts 210°
2026-04-22 22:50 -5.07548 119.42796 6384 ft 239 kts 210°
2026-04-22 22:50 -5.08969 119.41937 6141 ft 238 kts 210°
2026-04-22 22:50 -5.10395 119.41076 5883 ft 237 kts 210°
2026-04-22 22:50 -5.11824 119.40210 5626 ft 236 kts 210°
2026-04-22 22:51 -5.13235 119.39356 5382 ft 235 kts 210°
2026-04-22 22:51 -5.14653 119.38499 5128 ft 234 kts 210°
2026-04-22 22:51 -5.16117 119.37814 4849 ft 232 kts 189°
2026-04-22 22:51 -5.17708 119.37922 4512 ft 231 kts 157°
2026-04-22 22:52 -5.19000 119.38859 4131 ft 231 kts 126°
2026-04-22 22:52 -5.19884 119.40224 3779 ft 235 kts 120°
2026-04-22 22:52 -5.20727 119.41641 3394 ft 237 kts 119°
2026-04-22 22:52 -5.21569 119.43057 3014 ft 230 kts 119°
2026-04-22 22:53 -5.22360 119.44421 2660 ft 224 kts 112°
2026-04-22 22:53 -5.22594 119.45914 2314 ft 210 kts 80°
2026-04-22 22:53 -5.22087 119.47199 2027 ft 191 kts 50°
2026-04-22 22:53 -5.20982 119.47855 1972 ft 182 kts 18°
2026-04-22 22:54 -5.19820 119.48325 1980 ft 180 kts 30°
2026-04-22 22:54 -5.18799 119.48938 1966 ft 159 kts 31°
2026-04-22 22:54 -5.17835 119.49496 1937 ft 157 kts 30°
2026-04-22 22:54 -5.16920 119.50015 1740 ft 144 kts 31°
2026-04-22 22:55 -5.16060 119.50507 1564 ft 139 kts 31°
2026-04-22 22:55 -5.15227 119.50983 1391 ft 137 kts 31°
2026-04-22 22:55 -5.13554 119.51939 1034 ft 137 kts 31°
2026-04-22 22:56 -5.12728 119.52413 855 ft 137 kts 31°
2026-04-22 22:56 -5.11882 119.52897 672 ft 139 kts 31°
2026-04-22 22:56 -5.11020 119.53386 478 ft 141 kts 28°
2026-04-22 22:56 -5.10158 119.53870 276 ft 141 kts 30°
2026-04-22 22:57 -5.09310 119.54356 102 ft 139 kts 29°
2026-04-22 22:57 -5.08537 119.54801 66 ft 104 kts 29°
2026-04-22 22:57 -5.08069 119.55074 66 ft 51 kts 30°
2026-04-22 22:57 -5.07879 119.55181 66 ft 23 kts 29°
2026-04-22 22:58 -5.07760 119.55247 66 ft 10 kts 25°
2026-04-22 22:58 -5.07697 119.55225 66 ft 10 kts 297°
2026-04-22 22:58 -5.07661 119.55157 66 ft 11 kts 300°
2026-04-22 22:58 -5.07618 119.55084 66 ft 12 kts 301°
2026-04-22 22:59 -5.07580 119.55019 66 ft 7 kts 293°
2026-04-22 22:59 -5.07583 119.54964 66 ft 7 kts 254°
2026-04-22 22:59 -5.07591 119.54933 65 ft 3 kts 272°
2026-04-22 22:59 -5.07580 119.54906 65 ft 5 kts 300°
2026-04-22 23:00 -5.07565 119.54879 65 ft 3 kts 300°
2026-04-22 23:00 -5.07560 119.54871 65 ft 0 kts 300°